Observation data for Wall on 12/09/2018      Previous  Date       Current Mesonet Observations  Soil Data  Daily Summary Page  Observations in Plain Language
KWA1 090600Z 07001KT 01/00 A3033 RMK A01 T00080002  RH  096%=      5-min Rain = 0
KWA1 090601Z 06002KT 01/00 A3033 RMK A01 T00080003  RH  096%=      5-min Rain = 0
KWA1 090602Z 06001KT 01/00 A3033 RMK A01 T00080003  RH  096%=      5-min Rain = 0
KWA1 090603Z 06002KT 01/00 A3033 RMK A01 T00080003  RH  097%=      5-min Rain = 0
KWA1 090604Z 05001KT 01/00 A3033 RMK A01 T00090004  RH  097%=      5-min Rain = 0
KWA1 090605Z 05001KT 01/00 A3033 RMK A01 T00080004  RH  097%=      5-min Rain = 0
KWA1 090606Z 06001KT 01/00 A3033 RMK A01 T00080003  RH  097%=      5-min Rain = 0
KWA1 090607Z 06001KT 01/00 A3033 RMK A01 T00080003  RH  096%=      5-min Rain = 0
KWA1 090608Z 07001KT 01/00 A3033 RMK A01 T00070002  RH  096%=      5-min Rain = 0
KWA1 090609Z 07001KT 01/00 A3033 RMK A01 T00070002  RH  096%=      5-min Rain = 0
KWA1 090610Z 07001KT 01/00 A3033 RMK A01 T00070001  RH  096%=      5-min Rain = 0
KWA1 090611Z 07001KT 01/00 A3033 RMK A01 T00060001  RH  096%=      5-min Rain = 0
KWA1 090612Z 07000KT 01/00 A3033 RMK A01 T00060001  RH  096%=      5-min Rain = 0
KWA1 090613Z 07000KT 01/00 A3033 RMK A01 T00060001  RH  097%=      5-min Rain = 0
KWA1 090614Z 00000KT 01/00 A3033 RMK A01 T00060001  RH  097%=      5-min Rain = 0
KWA1 090615Z 00000KT 01/00 A3033 RMK A01 T00060001  RH  097%=      5-min Rain = 0
KWA1 090616Z 12000KT 01/00 A3033 RMK A01 T00050001  RH  097%=      5-min Rain = 0
KWA1 090617Z 12001KT 01/00 A3033 RMK A01 T00050001  RH  097%=      5-min Rain = 0
KWA1 090618Z 15002KT 01/00 A3033 RMK A01 T00050000  RH  097%=      5-min Rain = 0
KWA1 090619Z 16002KT 00/M00 A3033 RMK A01 T00041001  RH  097%=      5-min Rain = 0
KWA1 090620Z 16001KT 00/M00 A3033 RMK A01 T00041001  RH  097%=      5-min Rain = 0
KWA1 090621Z 16002KT 00/M00 A3033 RMK A01 T00031001  RH  097%=      5-min Rain = 0
KWA1 090622Z 17002KT 00/M00 A3033 RMK A01 T00031001  RH  097%=      5-min Rain = 0
KWA1 090623Z 18002KT 00/M00 A3033 RMK A01 T00031001  RH  097%=      5-min Rain = 0
KWA1 090624Z 19002KT 00/M00 A3033 RMK A01 T00021002  RH  097%=      5-min Rain = 0
KWA1 090625Z 20002KT 00/M00 A3033 RMK A01 T00031001  RH  097%=      5-min Rain = 0
KWA1 090626Z 22002KT 00/M00 A3033 RMK A01 T00031001  RH  097%=      5-min Rain = 0
KWA1 090627Z 23003KT 00/M00 A3033 RMK A01 T00021002  RH  097%=      5-min Rain = 0
KWA1 090628Z 24003KT 00/M00 A3033 RMK A01 T00021002  RH  097%=      5-min Rain = 0
KWA1 090629Z 25003KT 00/M00 A3033 RMK A01 T00031001  RH  097%=      5-min Rain = 0
KWA1 090630Z 25003KT 00/M00 A3033 RMK A01 T00031001  RH  097%=      5-min Rain = 0
KWA1 090631Z 26003KT 00/M00 A3033 RMK A01 T00031001  RH  097%=      5-min Rain = 0
KWA1 090632Z 26003KT 00/M00 A3033 RMK A01 T00031002  RH  097%=      5-min Rain = 0
KWA1 090633Z 26004KT 00/M00 A3033 RMK A01 T00031002  RH  097%=      5-min Rain = 0
KWA1 090634Z 26004KT 00/M00 A3033 RMK A01 T00031002  RH  097%=      5-min Rain = 0
KWA1 090635Z 26004KT 00/M00 A3033 RMK A01 T00031002  RH  097%=      5-min Rain = 0
KWA1 090636Z 27003KT 00/M00 A3033 RMK A01 T00031002  RH  097%=      5-min Rain = 0
KWA1 090637Z 27003KT 00/M00 A3033 RMK A01 T00031002  RH  097%=      5-min Rain = 0
KWA1 090638Z 27004KT 00/M00 A3033 RMK A01 T00031002  RH  097%=      5-min Rain = 0
KWA1 090639Z 27004KT 00/M00 A3033 RMK A01 T00031002  RH  097%=      5-min Rain = 0
KWA1 090640Z 27004KT 00/M00 A3033 RMK A01 T00031002  RH  097%=      5-min Rain = 0
KWA1 090641Z 27005KT 00/M00 A3033 RMK A01 T00031001  RH  097%=      5-min Rain = 0
KWA1 090642Z 28005KT 00/M00 A3033 RMK A01 T00041001  RH  097%=      5-min Rain = 0
KWA1 090643Z 28005KT 00/M00 A3033 RMK A01 T00041001  RH  097%=      5-min Rain = 0
KWA1 090644Z 28005KT 00/00 A3033 RMK A01 T000400-0  RH  097%=      5-min Rain = 0
KWA1 090645Z 28005KT 01/00 A3033 RMK A01 T00050001  RH  097%=      5-min Rain = 0
KWA1 090646Z 28005KT 01/00 A3033 RMK A01 T00050000  RH  097%=      5-min Rain = 0
KWA1 090647Z 29005KT 01/00 A3033 RMK A01 T00060001  RH  097%=      5-min Rain = 0
KWA1 090648Z 29005KT 01/00 A3033 RMK A01 T00060001  RH  097%=      5-min Rain = 0
KWA1 090649Z 29005KT 01/00 A3033 RMK A01 T00060000  RH  096%=      5-min Rain = 0
KWA1 090650Z 29005KT 01/00 A3033 RMK A01 T00060000  RH  096%=      5-min Rain = 0
KWA1 090651Z 29005KT 01/00 A3033 RMK A01 T000500-0  RH  096%=      5-min Rain = 0
KWA1 090652Z 29006KT 01/00 A3033 RMK A01 T000500-0  RH  096%=      5-min Rain = 0
KWA1 090653Z 29006KT 01/00 A3033 RMK A01 T000500-0  RH  096%=      5-min Rain = 0
KWA1 090654Z 29006KT 01/00 A3033 RMK A01 T000500-0  RH  096%=      5-min Rain = 0
KWA1 090655Z 29006KT 01/00 A3033 RMK A01 T000500-0  RH  096%=      5-min Rain = 0
KWA1 090656Z 29006KT 01/00 A3033 RMK A01 T00050000  RH  096%=      5-min Rain = 0
KWA1 090657Z 29006KT 01/00 A3033 RMK A01 T00060001  RH  096%=      5-min Rain = 0
KWA1 090658Z 29006KT 01/00 A3033 RMK A01 T00060001  RH  096%=      5-min Rain = 0
KWA1 090659Z 29006KT 01/00 A3033 RMK A01 T00070001  RH  096%=      5-min Rain = 0
KWA1 090700Z 29006KT 01/00 A3033 RMK A01 T00070000  RH  096%=      5-min Rain = 0
KWA1 090701Z 29006KT 01/00 A3033 RMK A01 T00070000  RH  095%=      5-min Rain = 0
KWA1 090702Z 29006KT 01/00 A3033 RMK A01 T000600-0  RH  095%=      5-min Rain = 0
KWA1 090703Z 28006KT 01/M00 A3033 RMK A01 T00061001  RH  095%=      5-min Rain = 0
KWA1 090704Z 28006KT 01/00 A3033 RMK A01 T000600-0  RH  095%=      5-min Rain = 0
KWA1 090705Z 29006KT 01/M00 A3033 RMK A01 T00061001  RH  095%=      5-min Rain = 0
KWA1 090706Z 28005KT 01/M00 A3033 RMK A01 T00061001  RH  095%=      5-min Rain = 0
KWA1 090707Z 29005KT 01/M00 A3033 RMK A01 T00061001  RH  095%=      5-min Rain = 0
KWA1 090708Z 29005KT 01/M00 A3033 RMK A01 T00061001  RH  095%=      5-min Rain = 0
KWA1 090709Z 29005KT 01/M00 A3033 RMK A01 T00051001  RH  095%=      5-min Rain = 0
KWA1 090710Z 28005KT 01/M00 A3033 RMK A01 T00051001  RH  095%=      5-min Rain = 0
KWA1 090711Z 29005KT 01/M00 A3033 RMK A01 T00051001  RH  095%=      5-min Rain = 0
KWA1 090712Z 28005KT 01/M00 A3033 RMK A01 T00051001  RH  096%=      5-min Rain = 0
KWA1 090713Z 28005KT 01/M00 A3033 RMK A01 T00051001  RH  096%=      5-min Rain = 0
KWA1 090714Z 28005KT 01/M00 A3033 RMK A01 T00051001  RH  096%=      5-min Rain = 0
KWA1 090715Z 28005KT 01/M00 A3033 RMK A01 T00051001  RH  096%=      5-min Rain = 0
KWA1 090716Z 28005KT 01/M00 A3033 RMK A01 T00051001  RH  096%=      5-min Rain = 0
KWA1 090717Z 28005KT 01/M00 A3033 RMK A01 T00051001  RH  096%=      5-min Rain = 0
KWA1 090718Z 28005KT 01/M00 A3033 RMK A01 T00051001  RH  096%=      5-min Rain = 0
KWA1 090719Z 28006KT 00/M00 A3033 RMK A01 T00041002  RH  096%=      5-min Rain = 0
KWA1 090720Z 29006KT 00/M00 A3033 RMK A01 T00041002  RH  096%=      5-min Rain = 0
KWA1 090721Z 28005KT 00/M00 A3033 RMK A01 T00041002  RH  096%=      5-min Rain = 0
KWA1 090722Z 28005KT 00/M00 A3033 RMK A01 T00041002  RH  096%=      5-min Rain = 0
KWA1 090723Z 28005KT 00/M00 A3033 RMK A01 T00041002  RH  096%=      5-min Rain = 0
KWA1 090724Z 28004KT 00/M00 A3032 RMK A01 T00041002  RH  096%=      5-min Rain = 0
KWA1 090725Z 27004KT 00/M00 A3032 RMK A01 T00041002  RH  096%=      5-min Rain = 0
KWA1 090726Z 27005KT 00/M00 A3032 RMK A01 T00041002  RH  096%=      5-min Rain = 0
KWA1 090727Z 27005KT 00/M00 A3032 RMK A01 T00041002  RH  096%=      5-min Rain = 0
KWA1 090728Z 27005KT 00/M00 A3032 RMK A01 T00041002  RH  096%=      5-min Rain = 0
KWA1 090729Z 27005KT 00/M00 A3032 RMK A01 T00041001  RH  096%=      5-min Rain = 0
KWA1 090730Z 27004KT 00/M00 A3032 RMK A01 T00041001  RH  096%=      5-min Rain = 0
KWA1 090731Z 27004KT 00/M00 A3032 RMK A01 T00041002  RH  096%=      5-min Rain = 0
KWA1 090732Z 27004KT 00/M00 A3032 RMK A01 T00041002  RH  096%=      5-min Rain = 0
KWA1 090733Z 27005KT 00/M00 A3032 RMK A01 T00031003  RH  096%=      5-min Rain = 0
KWA1 090734Z 27005KT 00/M00 A3032 RMK A01 T00031003  RH  096%=      5-min Rain = 0
KWA1 090735Z 27005KT 00/M00 A3032 RMK A01 T00031003  RH  096%=      5-min Rain = 0
KWA1 090736Z 27005KT 00/M00 A3032 RMK A01 T00031003  RH  096%=      5-min Rain = 0
KWA1 090737Z 27005KT 00/M00 A3032 RMK A01 T00031003  RH  096%=      5-min Rain = 0
KWA1 090738Z 27005KT 00/M00 A3032 RMK A01 T00021003  RH  096%=      5-min Rain = 0
KWA1 090739Z 26005KT 00/M00 A3032 RMK A01 T00031003  RH  096%=      5-min Rain = 0
KWA1 090740Z 26005KT 00/M00 A3032 RMK A01 T00021003  RH  096%=      5-min Rain = 0
KWA1 090741Z 26005KT 00/M00 A3032 RMK A01 T00021004  RH  096%=      5-min Rain = 0
KWA1 090742Z 27005KT 00/M01 A3032 RMK A01 T00011005  RH  096%=      5-min Rain = 0
KWA1 090743Z 27005KT 00/M00 A3032 RMK A01 T00011004  RH  096%=      5-min Rain = 0
KWA1 090744Z 27005KT 00/M00 A3032 RMK A01 T00011004  RH  096%=      5-min Rain = 0
KWA1 090745Z 27005KT 00/M01 A3032 RMK A01 T00011005  RH  096%=      5-min Rain = 0
KWA1 090746Z 27004KT 00/M00 A3032 RMK A01 T00011004  RH  097%=      5-min Rain = 0
KWA1 090747Z 27004KT 00/00 A3032 RMK A01 T000000-4  RH  097%=      5-min Rain = 0
KWA1 090748Z 27004KT 00/M00 A3032 RMK A01 T00011004  RH  097%=      5-min Rain = 0
KWA1 090749Z 28004KT 00/M00 A3032 RMK A01 T00011004  RH  097%=      5-min Rain = 0
KWA1 090750Z 28004KT 00/M00 A3032 RMK A01 T00011004  RH  097%=      5-min Rain = 0
KWA1 090751Z 28004KT 00/00 A3032 RMK A01 T000000-4  RH  097%=      5-min Rain = 0
KWA1 090752Z 28004KT 00/M00 A3032 RMK A01 T00011004  RH  097%=      5-min Rain = 0
KWA1 090753Z 27004KT 00/M00 A3032 RMK A01 T00011003  RH  097%=      5-min Rain = 0
KWA1 090754Z 27004KT 00/M00 A3032 RMK A01 T00011003  RH  097%=      5-min Rain = 0
KWA1 090755Z 27004KT 00/M00 A3032 RMK A01 T00011003  RH  097%=      5-min Rain = 0
KWA1 090756Z 27003KT 00/M00 A3032 RMK A01 T00011003  RH  097%=      5-min Rain = 0
KWA1 090757Z 27003KT 00/M00 A3032 RMK A01 T00011004  RH  097%=      5-min Rain = 0
KWA1 090758Z 27003KT 00/M00 A3032 RMK A01 T00011003  RH  097%=      5-min Rain = 0
KWA1 090759Z 27003KT 00/M00 A3032 RMK A01 T00011004  RH  097%=      5-min Rain = 0
KWA1 090800Z 27003KT 00/00 A3032 RMK A01 T000000-4  RH  097%=      5-min Rain = 0
KWA1 090801Z 27003KT 00/00 A3032 RMK A01 T000000-4  RH  097%=      5-min Rain = 0
KWA1 090802Z 27003KT 00/00 A3032 RMK A01 T000000-4  RH  097%=      5-min Rain = 0
KWA1 090803Z 27003KT 00/00 A3032 RMK A01 T000000-4  RH  097%=      5-min Rain = 0
KWA1 090804Z 27003KT 00/01 A3032 RMK A01 T00-000-5  RH  097%=      5-min Rain = 0
KWA1 090805Z 27002KT 00/01 A3032 RMK A01 T00-000-5  RH  097%=      5-min Rain = 0
KWA1 090806Z 27002KT M00/M01 A3032 RMK A01 T10011005  RH  097%=      5-min Rain = 0
KWA1 090807Z 27001KT M00/M01 A3032 RMK A01 T10011006  RH  097%=      5-min Rain = 0
KWA1 090808Z 27001KT M00/M01 A3032 RMK A01 T10021006  RH  097%=      5-min Rain = 0
KWA1 090809Z 27001KT M00/M01 A3032 RMK A01 T10021007  RH  097%=      5-min Rain = 0
KWA1 090810Z 27000KT M00/M01 A3032 RMK A01 T10031007  RH  097%=      5-min Rain = 0
KWA1 090811Z 27000KT M00/M01 A3032 RMK A01 T10031008  RH  097%=      5-min Rain = 0
KWA1 090812Z 00000KT M00/M01 A3032 RMK A01 T10031008  RH  097%=      5-min Rain = 0
KWA1 090813Z 27000KT M00/M01 A3032 RMK A01 T10031008  RH  097%=      5-min Rain = 0
KWA1 090814Z 27000KT M00/M01 A3032 RMK A01 T10041008  RH  097%=      5-min Rain = 0
KWA1 090815Z 26001KT M00/M01 A3032 RMK A01 T10041008  RH  097%=      5-min Rain = 0
KWA1 090816Z 25001KT M00/M01 A3032 RMK A01 T10031007  RH  097%=      5-min Rain = 0
KWA1 090817Z 25002KT M00/M01 A3032 RMK A01 T10031007  RH  097%=      5-min Rain = 0
KWA1 090818Z 24002KT M00/M01 A3032 RMK A01 T10031007  RH  097%=      5-min Rain = 0
KWA1 090819Z 24003KT M00/M01 A3031 RMK A01 T10031006  RH  098%=      5-min Rain = 0
KWA1 090820Z 24002KT M00/M01 A3031 RMK A01 T10031006  RH  098%=      5-min Rain = 0
KWA1 090821Z 23002KT M00/M01 A3031 RMK A01 T10031006  RH  097%=      5-min Rain = 0
KWA1 090822Z 23002KT M00/M01 A3031 RMK A01 T10031007  RH  097%=      5-min Rain = 0
KWA1 090823Z 24003KT M00/M01 A3031 RMK A01 T10041007  RH  097%=      5-min Rain = 0
KWA1 090824Z 24003KT M00/M01 A3031 RMK A01 T10041007  RH  098%=      5-min Rain = 0
KWA1 090825Z 24003KT M00/M01 A3031 RMK A01 T10041007  RH  098%=      5-min Rain = 0
KWA1 090826Z 25003KT M00/M01 A3031 RMK A01 T10041007  RH  098%=      5-min Rain = 0
KWA1 090827Z 25003KT M00/M01 A3031 RMK A01 T10041007  RH  098%=      5-min Rain = 0
KWA1 090828Z 25003KT M00/M01 A3031 RMK A01 T10041008  RH  097%=      5-min Rain = 0
KWA1 090829Z 25003KT M01/M01 A3031 RMK A01 T10051008  RH  098%=      5-min Rain = 0
KWA1 090830Z 26003KT M01/M01 A3031 RMK A01 T10051008  RH  098%=      5-min Rain = 0
KWA1 090831Z 27003KT M00/M01 A3031 RMK A01 T10041008  RH  098%=      5-min Rain = 0
KWA1 090832Z 28003KT M01/M01 A3031 RMK A01 T10051008  RH  098%=      5-min Rain = 0
KWA1 090833Z 28003KT M00/M01 A3031 RMK A01 T10041008  RH  098%=      5-min Rain = 0
KWA1 090834Z 28004KT M01/M01 A3031 RMK A01 T10051008  RH  098%=      5-min Rain = 0
KWA1 090835Z 29004KT M00/M01 A3031 RMK A01 T10041008  RH  098%=      5-min Rain = 0
KWA1 090836Z 29004KT M00/M01 A3031 RMK A01 T10041007  RH  098%=      5-min Rain = 0
KWA1 090837Z 29005KT M00/M01 A3031 RMK A01 T10041007  RH  098%=      5-min Rain = 0
KWA1 090838Z 29005KT M00/M01 A3031 RMK A01 T10041007  RH  098%=      5-min Rain = 0
KWA1 090839Z 30005KT M00/M01 A3031 RMK A01 T10031006  RH  098%=      5-min Rain = 0
KWA1 090840Z 30004KT M00/M01 A3031 RMK A01 T10031006  RH  098%=      5-min Rain = 0
KWA1 090841Z 30004KT M00/M01 A3031 RMK A01 T10031005  RH  098%=      5-min Rain = 0
KWA1 090842Z 30005KT M00/M01 A3031 RMK A01 T10021005  RH  098%=      5-min Rain = 0
KWA1 090843Z 30005KT M00/M00 A3031 RMK A01 T10021004  RH  098%=      5-min Rain = 0
KWA1 090844Z 30005KT M00/M00 A3031 RMK A01 T10011004  RH  098%=      5-min Rain = 0
KWA1 090845Z 30005KT M00/M00 A3031 RMK A01 T10011004  RH  098%=      5-min Rain = 0
KWA1 090846Z 30005KT M00/M00 A3031 RMK A01 T10011004  RH  098%=      5-min Rain = 0
KWA1 090847Z 30005KT 00/00 A3031 RMK A01 T00-000-3  RH  098%=      5-min Rain = 0
KWA1 090848Z 30005KT 00/00 A3031 RMK A01 T00-000-3  RH  098%=      5-min Rain = 0
KWA1 090849Z 30005KT 00/00 A3031 RMK A01 T000000-3  RH  098%=      5-min Rain = 0
KWA1 090850Z 30005KT 00/M00 A3031 RMK A01 T00011002  RH  098%=      5-min Rain = 0
KWA1 090851Z 31005KT 00/M00 A3031 RMK A01 T00011002  RH  097%=      5-min Rain = 0
KWA1 090852Z 30005KT 00/M00 A3031 RMK A01 T00021002  RH  097%=      5-min Rain = 0
KWA1 090853Z 30005KT 00/M00 A3031 RMK A01 T00021002  RH  097%=      5-min Rain = 0
KWA1 090854Z 30005KT 00/M00 A3031 RMK A01 T00031001  RH  097%=      5-min Rain = 0
KWA1 090855Z 30005KT 00/M00 A3031 RMK A01 T00031002  RH  097%=      5-min Rain = 0
KWA1 090856Z 31005KT 00/M00 A3031 RMK A01 T00031001  RH  097%=      5-min Rain = 0
KWA1 090857Z 31005KT 00/M00 A3031 RMK A01 T00031002  RH  096%=      5-min Rain = 0
KWA1 090858Z 31005KT 00/M00 A3031 RMK A01 T00041002  RH  096%=      5-min Rain = 0
KWA1 090859Z 31005KT 00/M00 A3031 RMK A01 T00041002  RH  096%=      5-min Rain = 0
KWA1 090900Z 31005KT 00/M00 A3031 RMK A01 T00041002  RH  096%=      5-min Rain = 0
KWA1 090901Z 32005KT 00/M00 A3031 RMK A01 T00041002  RH  096%=      5-min Rain = 0
KWA1 090902Z 32005KT 00/M00 A3031 RMK A01 T00031003  RH  096%=      5-min Rain = 0
KWA1 090903Z 32005KT 00/M00 A3031 RMK A01 T00031003  RH  096%=      5-min Rain = 0
KWA1 090904Z 32005KT 00/M00 A3031 RMK A01 T00031003  RH  096%=      5-min Rain = 0
KWA1 090905Z 32005KT 00/M00 A3031 RMK A01 T00031003  RH  096%=      5-min Rain = 0
KWA1 090906Z 32005KT 00/M00 A3031 RMK A01 T00031003  RH  096%=      5-min Rain = 0
KWA1 090907Z 32005KT 00/M00 A3031 RMK A01 T00031003  RH  096%=      5-min Rain = 0
KWA1 090908Z 32005KT 00/M00 A3031 RMK A01 T00031003  RH  096%=      5-min Rain = 0
KWA1 090909Z 32004KT 00/M00 A3031 RMK A01 T00031003  RH  096%=      5-min Rain = 0
KWA1 090910Z 32004KT 00/M00 A3031 RMK A01 T00031003  RH  096%=      5-min Rain = 0
KWA1 090911Z 31004KT 00/M00 A3031 RMK A01 T00031003  RH  096%=      5-min Rain = 0
KWA1 090912Z 31004KT 00/M00 A3031 RMK A01 T00031003  RH  096%=      5-min Rain = 0
KWA1 090913Z 32004KT 00/M00 A3031 RMK A01 T00031003  RH  096%=      5-min Rain = 0
KWA1 090914Z 31004KT 00/M00 A3031 RMK A01 T00031003  RH  096%=      5-min Rain = 0
KWA1 090915Z 31004KT 00/M00 A3031 RMK A01 T00031003  RH  096%=      5-min Rain = 0
KWA1 090916Z 31004KT 00/M00 A3031 RMK A01 T00031004  RH  096%=      5-min Rain = 0
KWA1 090917Z 31004KT 00/M00 A3031 RMK A01 T00021004  RH  096%=      5-min Rain = 0
KWA1 090918Z 31004KT 00/M00 A3031 RMK A01 T00021004  RH  096%=      5-min Rain = 0
KWA1 090919Z 32004KT 00/M00 A3031 RMK A01 T00021004  RH  096%=      5-min Rain = 0
KWA1 090920Z 32004KT 00/M01 A3031 RMK A01 T00021005  RH  096%=      5-min Rain = 0
KWA1 090921Z 32005KT 00/M01 A3031 RMK A01 T00021005  RH  096%=      5-min Rain = 0
KWA1 090922Z 32005KT 00/M01 A3031 RMK A01 T00011005  RH  096%=      5-min Rain = 0
KWA1 090923Z 32005KT 00/M01 A3031 RMK A01 T00011005  RH  096%=      5-min Rain = 0
KWA1 090924Z 32005KT 00/M01 A3031 RMK A01 T00011005  RH  096%=      5-min Rain = 0
KWA1 090925Z 32006KT 00/M01 A3031 RMK A01 T00011005  RH  096%=      5-min Rain = 0
KWA1 090926Z 32006KT 00/M01 A3031 RMK A01 T00011005  RH  096%=      5-min Rain = 0
KWA1 090927Z 32006KT 00/M01 A3031 RMK A01 T00011005  RH  096%=      5-min Rain = 0
KWA1 090928Z 31006KT 00/M01 A3031 RMK A01 T00011005  RH  096%=      5-min Rain = 0
KWA1 090929Z 31006KT 00/M00 A3031 RMK A01 T00011004  RH  096%=      5-min Rain = 0
KWA1 090930Z 31006KT 00/M00 A3031 RMK A01 T00021004  RH  096%=      5-min Rain = 0
KWA1 090931Z 31006KT 00/M00 A3031 RMK A01 T00021004  RH  096%=      5-min Rain = 0
KWA1 090932Z 31006KT 00/M00 A3031 RMK A01 T00011004  RH  096%=      5-min Rain = 0
KWA1 090933Z 31006KT 00/M00 A3031 RMK A01 T00021004  RH  096%=      5-min Rain = 0
KWA1 090934Z 31006KT 00/M00 A3031 RMK A01 T00021004  RH  096%=      5-min Rain = 0
KWA1 090935Z 31006KT 00/M00 A3031 RMK A01 T00021004  RH  096%=      5-min Rain = 0
KWA1 090936Z 31006KT 00/M00 A3031 RMK A01 T00021004  RH  096%=      5-min Rain = 0
KWA1 090937Z 31006KT 00/M00 A3031 RMK A01 T00021004  RH  096%=      5-min Rain = 0
KWA1 090938Z 31006KT 00/M00 A3031 RMK A01 T00021004  RH  096%=      5-min Rain = 0
KWA1 090939Z 31006KT 00/M00 A3031 RMK A01 T00021004  RH  096%=      5-min Rain = 0
KWA1 090940Z 31006KT 00/M00 A3031 RMK A01 T00021004  RH  096%=      5-min Rain = 0
KWA1 090941Z 31006KT 00/M00 A3031 RMK A01 T00021004  RH  096%=      5-min Rain = 0
KWA1 090942Z 31006KT 00/M00 A3031 RMK A01 T00021004  RH  096%=      5-min Rain = 0
KWA1 090943Z 31006KT 00/M00 A3031 RMK A01 T00021004  RH  096%=      5-min Rain = 0
KWA1 090944Z 31006KT 00/M00 A3031 RMK A01 T00021004  RH  096%=      5-min Rain = 0
KWA1 090945Z 31005KT 00/M00 A3031 RMK A01 T00021004  RH  096%=      5-min Rain = 0
KWA1 090946Z 31005KT 00/M00 A3031 RMK A01 T00021004  RH  096%=      5-min Rain = 0
KWA1 090947Z 31006KT 00/M00 A3031 RMK A01 T00021004  RH  096%=      5-min Rain = 0
KWA1 090948Z 30006KT 00/M00 A3031 RMK A01 T00021004  RH  096%=      5-min Rain = 0
KWA1 090949Z 30006KT 00/M00 A3031 RMK A01 T00021004  RH  096%=      5-min Rain = 0
KWA1 090950Z 30006KT 00/M00 A3031 RMK A01 T00021004  RH  096%=      5-min Rain = 0
KWA1 090951Z 30006KT 00/M00 A3031 RMK A01 T00021004  RH  096%=      5-min Rain = 0
KWA1 090952Z 30006KT 00/M00 A3031 RMK A01 T00021003  RH  096%=      5-min Rain = 0
KWA1 090953Z 30006KT 00/M00 A3032 RMK A01 T00021003  RH  096%=      5-min Rain = 0
KWA1 090954Z 30006KT 00/M00 A3032 RMK A01 T00021004  RH  096%=      5-min Rain = 0
KWA1 090955Z 30006KT 00/M00 A3031 RMK A01 T00021004  RH  096%=      5-min Rain = 0
KWA1 090956Z 30006KT 00/M00 A3031 RMK A01 T00021004  RH  096%=      5-min Rain = 0
KWA1 090957Z 30006KT 00/M00 A3031 RMK A01 T00021004  RH  096%=      5-min Rain = 0
KWA1 090958Z 30006KT 00/M00 A3031 RMK A01 T00011004  RH  096%=      5-min Rain = 0
KWA1 090959Z 30005KT 00/M00 A3031 RMK A01 T00021004  RH  096%=      5-min Rain = 0
KWA1 091000Z 30005KT 00/M00 A3032 RMK A01 T00021004  RH  096%=      5-min Rain = 0
KWA1 091001Z 29005KT 00/M00 A3032 RMK A01 T00011004  RH  096%=      5-min Rain = 0
KWA1 091002Z 30005KT 00/M00 A3032 RMK A01 T00011004  RH  096%=      5-min Rain = 0
KWA1 091003Z 29005KT 00/M00 A3032 RMK A01 T00011004  RH  096%=      5-min Rain = 0
KWA1 091004Z 30005KT 00/M00 A3032 RMK A01 T00011004  RH  096%=      5-min Rain = 0
KWA1 091005Z 29005KT 00/M00 A3032 RMK A01 T00011004  RH  096%=      5-min Rain = 0
KWA1 091006Z 29005KT 00/M00 A3032 RMK A01 T00021003  RH  096%=      5-min Rain = 0
KWA1 091007Z 30005KT 00/M00 A3032 RMK A01 T00021004  RH  096%=      5-min Rain = 0
KWA1 091008Z 30005KT 00/M00 A3032 RMK A01 T00011004  RH  096%=      5-min Rain = 0
KWA1 091009Z 30005KT 00/M00 A3032 RMK A01 T00011004  RH  096%=      5-min Rain = 0
KWA1 091010Z 30005KT 00/M00 A3032 RMK A01 T00011004  RH  097%=      5-min Rain = 0
KWA1 091011Z 30005KT 00/M00 A3032 RMK A01 T00011004  RH  097%=      5-min Rain = 0
KWA1 091012Z 31005KT 00/M00 A3032 RMK A01 T00011004  RH  097%=      5-min Rain = 0
KWA1 091013Z 31005KT 00/01 A3032 RMK A01 T000000-5  RH  097%=      5-min Rain = 0
KWA1 091014Z 31005KT 00/01 A3032 RMK A01 T00-000-5  RH  097%=      5-min Rain = 0
KWA1 091015Z 31005KT 00/01 A3032 RMK A01 T00-000-5  RH  097%=      5-min Rain = 0
KWA1 091016Z 31005KT 00/01 A3032 RMK A01 T00-000-5  RH  097%=      5-min Rain = 0
KWA1 091017Z 31005KT M00/M01 A3032 RMK A01 T10011005  RH  097%=      5-min Rain = 0
KWA1 091018Z 31005KT M00/M01 A3032 RMK A01 T10011005  RH  097%=      5-min Rain = 0
KWA1 091019Z 31005KT M00/M01 A3032 RMK A01 T10011005  RH  097%=      5-min Rain = 0
KWA1 091020Z 31005KT M00/M01 A3032 RMK A01 T10011006  RH  097%=      5-min Rain = 0
KWA1 091021Z 31005KT M00/M01 A3032 RMK A01 T10011006  RH  097%=      5-min Rain = 0
KWA1 091022Z 30004KT M00/M01 A3032 RMK A01 T10021006  RH  097%=      5-min Rain = 0
KWA1 091023Z 30005KT M00/M01 A3032 RMK A01 T10021006  RH  097%=      5-min Rain = 0
KWA1 091024Z 30005KT M00/M01 A3032 RMK A01 T10021006  RH  097%=      5-min Rain = 0
KWA1 091025Z 30005KT M00/M01 A3032 RMK A01 T10021006  RH  097%=      5-min Rain = 0
KWA1 091026Z 30004KT M00/M01 A3032 RMK A01 T10021006  RH  097%=      5-min Rain = 0
KWA1 091027Z 30004KT M00/M01 A3032 RMK A01 T10021006  RH  097%=      5-min Rain = 0
KWA1 091028Z 30004KT M00/M01 A3032 RMK A01 T10021007  RH  097%=      5-min Rain = 0
KWA1 091029Z 30004KT M00/M01 A3032 RMK A01 T10031007  RH  097%=      5-min Rain = 0
KWA1 091030Z 30005KT M00/M01 A3032 RMK A01 T10031006  RH  097%=      5-min Rain = 0
KWA1 091031Z 30005KT M00/M01 A3032 RMK A01 T10021006  RH  097%=      5-min Rain = 0
KWA1 091032Z 30004KT M00/M01 A3032 RMK A01 T10021006  RH  097%=      5-min Rain = 0
KWA1 091033Z 30005KT M00/M01 A3032 RMK A01 T10031006  RH  098%=      5-min Rain = 0
KWA1 091034Z 30005KT M00/M01 A3032 RMK A01 T10031006  RH  098%=      5-min Rain = 0
KWA1 091035Z 30004KT M00/M01 A3032 RMK A01 T10031006  RH  098%=      5-min Rain = 0
KWA1 091036Z 30004KT M00/M01 A3032 RMK A01 T10031006  RH  098%=      5-min Rain = 0
KWA1 091037Z 30004KT M00/M01 A3032 RMK A01 T10031006  RH  098%=      5-min Rain = 0
KWA1 091038Z 30004KT M00/M01 A3032 RMK A01 T10031006  RH  098%=      5-min Rain = 0
KWA1 091039Z 30004KT M00/M01 A3032 RMK A01 T10031007  RH  098%=      5-min Rain = 0
KWA1 091040Z 30005KT M00/M01 A3032 RMK A01 T10031007  RH  098%=      5-min Rain = 0
KWA1 091041Z 30005KT M00/M01 A3032 RMK A01 T10041007  RH  098%=      5-min Rain = 0
KWA1 091042Z 30005KT M00/M01 A3032 RMK A01 T10041007  RH  098%=      5-min Rain = 0
KWA1 091043Z 30005KT M00/M01 A3032 RMK A01 T10031006  RH  098%=      5-min Rain = 0
KWA1 091044Z 30005KT M00/M01 A3032 RMK A01 T10031006  RH  098%=      5-min Rain = 0
KWA1 091045Z 30005KT M00/M01 A3032 RMK A01 T10031006  RH  098%=      5-min Rain = 0
KWA1 091046Z 30005KT M00/M01 A3032 RMK A01 T10031006  RH  098%=      5-min Rain = 0
KWA1 091047Z 30005KT M00/M01 A3032 RMK A01 T10031006  RH  098%=      5-min Rain = 0
KWA1 091048Z 30005KT M00/M01 A3032 RMK A01 T10031006  RH  098%=      5-min Rain = 0
KWA1 091049Z 30005KT M00/M01 A3032 RMK A01 T10041007  RH  098%=      5-min Rain = 0
KWA1 091050Z 30005KT M00/M01 A3032 RMK A01 T10041006  RH  098%=      5-min Rain = 0
KWA1 091051Z 30005KT M00/M01 A3032 RMK A01 T10041006  RH  098%=      5-min Rain = 0
KWA1 091052Z 30005KT M00/M01 A3032 RMK A01 T10041007  RH  098%=      5-min Rain = 0
KWA1 091053Z 30005KT M00/M01 A3032 RMK A01 T10041007  RH  098%=      5-min Rain = 0
KWA1 091054Z 30005KT M00/M01 A3032 RMK A01 T10041007  RH  098%=      5-min Rain = 0
KWA1 091055Z 30006KT M00/M01 A3032 RMK A01 T10041007  RH  098%=      5-min Rain = 0
KWA1 091056Z 30005KT M00/M01 A3032 RMK A01 T10041007  RH  098%=      5-min Rain = 0
KWA1 091057Z 30005KT M00/M01 A3033 RMK A01 T10041007  RH  098%=      5-min Rain = 0
KWA1 091058Z 30005KT M00/M01 A3033 RMK A01 T10041007  RH  098%=      5-min Rain = 0
KWA1 091059Z 30005KT M00/M01 A3033 RMK A01 T10041007  RH  098%=      5-min Rain = 0
KWA1 091100Z 30005KT M00/M01 A3033 RMK A01 T10041007  RH  098%=      5-min Rain = 0
KWA1 091101Z 30005KT M00/M01 A3033 RMK A01 T10041007  RH  098%=      5-min Rain = 0
KWA1 091102Z 30005KT M01/M01 A3033 RMK A01 T10051008  RH  098%=      5-min Rain = 0
KWA1 091103Z 30005KT M01/M01 A3033 RMK A01 T10051008  RH  098%=      5-min Rain = 0
KWA1 091104Z 30005KT M01/M01 A3033 RMK A01 T10051008  RH  098%=      5-min Rain = 0
KWA1 091105Z 30006KT M01/M01 A3033 RMK A01 T10051008  RH  098%=      5-min Rain = 0
KWA1 091106Z 30005KT M01/M01 A3033 RMK A01 T10051008  RH  098%=      5-min Rain = 0
KWA1 091107Z 30005KT M01/M01 A3033 RMK A01 T10051008  RH  098%=      5-min Rain = 0
KWA1 091108Z 30005KT M01/M01 A3033 RMK A01 T10051008  RH  098%=      5-min Rain = 0
KWA1 091109Z 30005KT M01/M01 A3033 RMK A01 T10051008  RH  098%=      5-min Rain = 0
KWA1 091110Z 30005KT M01/M01 A3033 RMK A01 T10051008  RH  098%=      5-min Rain = 0
KWA1 091111Z 30005KT M01/M01 A3033 RMK A01 T10051008  RH  098%=      5-min Rain = 0
KWA1 091112Z 30005KT M01/M01 A3033 RMK A01 T10051008  RH  098%=      5-min Rain = 0
KWA1 091113Z 30004KT M01/M01 A3033 RMK A01 T10051008  RH  098%=      5-min Rain = 0
KWA1 091114Z 30004KT M01/M01 A3033 RMK A01 T10051008  RH  098%=      5-min Rain = 0
KWA1 091115Z 30005KT M01/M01 A3033 RMK A01 T10051008  RH  098%=      5-min Rain = 0
KWA1 091116Z 30004KT M01/M01 A3033 RMK A01 T10051008  RH  098%=      5-min Rain = 0
KWA1 091117Z 30005KT M01/M01 A3033 RMK A01 T10051008  RH  098%=      5-min Rain = 0
KWA1 091118Z 30005KT M01/M01 A3033 RMK A01 T10051008  RH  098%=      5-min Rain = 0
KWA1 091119Z 30004KT M01/M01 A3033 RMK A01 T10051008  RH  098%=      5-min Rain = 0
KWA1 091120Z 30004KT M01/M01 A3033 RMK A01 T10051008  RH  098%=      5-min Rain = 0
KWA1 091121Z 30004KT M01/M01 A3033 RMK A01 T10051008  RH  098%=      5-min Rain = 0
KWA1 091122Z 30004KT M01/M01 A3033 RMK A01 T10051008  RH  098%=      5-min Rain = 0
KWA1 091123Z 30004KT M01/M01 A3033 RMK A01 T10051008  RH  098%=      5-min Rain = 0
KWA1 091124Z 30004KT M01/M01 A3033 RMK A01 T10051008  RH  098%=      5-min Rain = 0
KWA1 091125Z 30004KT M01/M01 A3033 RMK A01 T10051008  RH  098%=      5-min Rain = 0
KWA1 091126Z 29004KT M01/M01 A3033 RMK A01 T10051009  RH  098%=      5-min Rain = 0
KWA1 091127Z 29004KT M01/M01 A3033 RMK A01 T10051009  RH  098%=      5-min Rain = 0
KWA1 091128Z 30004KT M01/M01 A3033 RMK A01 T10051009  RH  098%=      5-min Rain = 0
KWA1 091129Z 30004KT M01/M01 A3033 RMK A01 T10051008  RH  098%=      5-min Rain = 0
KWA1 091130Z 30004KT M01/M01 A3033 RMK A01 T10051008  RH  098%=      5-min Rain = 0
KWA1 091131Z 30004KT M01/M01 A3033 RMK A01 T10051008  RH  098%=      5-min Rain = 0
KWA1 091132Z 30004KT M01/M01 A3033 RMK A01 T10051009  RH  098%=      5-min Rain = 0
KWA1 091133Z 30004KT M01/M01 A3033 RMK A01 T10051008  RH  098%=      5-min Rain = 0
KWA1 091134Z 30004KT M01/M01 A3033 RMK A01 T10051008  RH  098%=      5-min Rain = 0
KWA1 091135Z 30004KT M01/M01 A3033 RMK A01 T10051009  RH  098%=      5-min Rain = 0
KWA1 091136Z 30004KT M01/M01 A3033 RMK A01 T10051009  RH  098%=      5-min Rain = 0
KWA1 091137Z 30004KT M01/M01 A3033 RMK A01 T10051009  RH  098%=      5-min Rain = 0
KWA1 091138Z 30004KT M01/M01 A3033 RMK A01 T10051009  RH  098%=      5-min Rain = 0
KWA1 091139Z 30004KT M01/M01 A3033 RMK A01 T10051009  RH  098%=      5-min Rain = 0
KWA1 091140Z 30004KT M01/M01 A3033 RMK A01 T10051009  RH  098%=      5-min Rain = 0
KWA1 091141Z 30004KT M01/M01 A3034 RMK A01 T10061009  RH  098%=      5-min Rain = 0
KWA1 091142Z 30004KT M01/M01 A3034 RMK A01 T10051009  RH  098%=      5-min Rain = 0
KWA1 091143Z 30004KT M01/M01 A3034 RMK A01 T10051009  RH  098%=      5-min Rain = 0
KWA1 091144Z 30004KT M01/M01 A3034 RMK A01 T10051009  RH  098%=      5-min Rain = 0
KWA1 091145Z 30004KT M01/M01 A3034 RMK A01 T10051009  RH  098%=      5-min Rain = 0
KWA1 091146Z 30004KT M01/M01 A3034 RMK A01 T10051009  RH  098%=      5-min Rain = 0
KWA1 091147Z 30004KT M01/M01 A3034 RMK A01 T10051009  RH  098%=      5-min Rain = 0
KWA1 091148Z 30004KT M01/M01 A3034 RMK A01 T10051009  RH  098%=      5-min Rain = 0
KWA1 091149Z 30004KT M01/M01 A3034 RMK A01 T10051009  RH  098%=      5-min Rain = 0
KWA1 091150Z 30004KT M01/M01 A3034 RMK A01 T10051009  RH  098%=      5-min Rain = 0
KWA1 091151Z 29004KT M01/M01 A3034 RMK A01 T10051009  RH  098%=      5-min Rain = 0
KWA1 091152Z 29004KT M01/M01 A3034 RMK A01 T10051009  RH  098%=      5-min Rain = 0
KWA1 091153Z 29004KT M01/M01 A3034 RMK A01 T10051009  RH  098%=      5-min Rain = 0
KWA1 091154Z 29004KT M01/M01 A3034 RMK A01 T10061009  RH  098%=      5-min Rain = 0
KWA1 091155Z 30004KT M01/M01 A3034 RMK A01 T10061010  RH  097%=      5-min Rain = 0
KWA1 091156Z 30004KT M01/M01 A3034 RMK A01 T10061010  RH  097%=      5-min Rain = 0
KWA1 091157Z 30004KT M01/M01 A3034 RMK A01 T10071011  RH  097%=      5-min Rain = 0
KWA1 091158Z 30003KT M01/M01 A3034 RMK A01 T10071010  RH  097%=      5-min Rain = 0
KWA1 091159Z 31004KT M01/M01 A3034 RMK A01 T10071010  RH  097%=      5-min Rain = 0
KWA1 091200Z 31004KT M01/M01 A3034 RMK A01 T10071010  RH  098%=      5-min Rain = 0
KWA1 091201Z 31004KT M01/M01 A3034 RMK A01 T10071010  RH  098%=      5-min Rain = 0
KWA1 091202Z 31004KT M01/M01 A3034 RMK A01 T10071010  RH  098%=      5-min Rain = 0
KWA1 091203Z 31004KT M01/M01 A3034 RMK A01 T10071010  RH  098%=      5-min Rain = 0
KWA1 091204Z 31004KT M01/M01 A3034 RMK A01 T10081011  RH  098%=      5-min Rain = 0
KWA1 091205Z 31004KT M01/M01 A3034 RMK A01 T10081011  RH  097%=      5-min Rain = 0
KWA1 091206Z 31004KT M01/M01 A3034 RMK A01 T10081012  RH  097%=      5-min Rain = 0
KWA1 091207Z 31004KT M01/M01 A3034 RMK A01 T10091012  RH  098%=      5-min Rain = 0
KWA1 091208Z 31004KT M01/M01 A3034 RMK A01 T10091012  RH  098%=      5-min Rain = 0
KWA1 091209Z 31004KT M01/M01 A3034 RMK A01 T10091012  RH  098%=      5-min Rain = 0
KWA1 091210Z 31004KT M01/M01 A3034 RMK A01 T10091012  RH  098%=      5-min Rain = 0
KWA1 091211Z 31004KT M01/M01 A3034 RMK A01 T10091012  RH  098%=      5-min Rain = 0
KWA1 091212Z 31004KT M01/M01 A3034 RMK A01 T10081011  RH  098%=      5-min Rain = 0
KWA1 091213Z 31004KT M01/M01 A3034 RMK A01 T10081011  RH  098%=      5-min Rain = 0
KWA1 091214Z 31005KT M01/M01 A3034 RMK A01 T10081011  RH  098%=      5-min Rain = 0
KWA1 091215Z 31004KT M01/M01 A3034 RMK A01 T10081011  RH  098%=      5-min Rain = 0
KWA1 091216Z 30005KT M01/M01 A3034 RMK A01 T10081011  RH  098%=      5-min Rain = 0
KWA1 091217Z 30005KT M01/M01 A3034 RMK A01 T10081010  RH  098%=      5-min Rain = 0
KWA1 091218Z 30005KT M01/M01 A3034 RMK A01 T10081011  RH  098%=      5-min Rain = 0
KWA1 091219Z 30005KT M01/M01 A3034 RMK A01 T10071010  RH  098%=      5-min Rain = 0
KWA1 091220Z 30005KT M01/M01 A3034 RMK A01 T10081010  RH  098%=      5-min Rain = 0
KWA1 091221Z 30005KT M01/M01 A3034 RMK A01 T10071010  RH  098%=      5-min Rain = 0
KWA1 091222Z 30005KT M01/M01 A3034 RMK A01 T10081011  RH  098%=      5-min Rain = 0
KWA1 091223Z 30005KT M01/M01 A3034 RMK A01 T10081011  RH  098%=      5-min Rain = 0
KWA1 091224Z 31004KT M01/M01 A3034 RMK A01 T10081011  RH  098%=      5-min Rain = 0
KWA1 091225Z 31004KT M01/M01 A3034 RMK A01 T10081011  RH  098%=      5-min Rain = 0
KWA1 091226Z 31005KT M01/M01 A3034 RMK A01 T10081011  RH  098%=      5-min Rain = 0
KWA1 091227Z 31004KT M01/M01 A3034 RMK A01 T10081011  RH  098%=      5-min Rain = 0
KWA1 091228Z 31004KT M01/M01 A3034 RMK A01 T10081011  RH  098%=      5-min Rain = 0
KWA1 091229Z 31003KT M01/M01 A3035 RMK A01 T10091012  RH  098%=      5-min Rain = 0
KWA1 091230Z 31003KT M01/M01 A3035 RMK A01 T10091012  RH  098%=      5-min Rain = 0
KWA1 091231Z 31004KT M01/M01 A3035 RMK A01 T10091012  RH  098%=      5-min Rain = 0
KWA1 091232Z 31004KT M01/M01 A3035 RMK A01 T10091012  RH  098%=      5-min Rain = 0
KWA1 091233Z 31004KT M01/M01 A3035 RMK A01 T10091012  RH  098%=      5-min Rain = 0
KWA1 091234Z 31004KT M01/M01 A3035 RMK A01 T10091012  RH  098%=      5-min Rain = 0
KWA1 091235Z 31004KT M01/M01 A3035 RMK A01 T10091012  RH  098%=      5-min Rain = 0
KWA1 091236Z 31004KT M01/M01 A3035 RMK A01 T10091012  RH  098%=      5-min Rain = 0
KWA1 091237Z 31004KT M01/M01 A3035 RMK A01 T10101012  RH  098%=      5-min Rain = 0
KWA1 091238Z 31004KT M01/M01 A3035 RMK A01 T10101013  RH  098%=      5-min Rain = 0
KWA1 091239Z 31004KT M01/M01 A3035 RMK A01 T10101013  RH  098%=      5-min Rain = 0
KWA1 091240Z 31004KT M01/M01 A3035 RMK A01 T10101013  RH  098%=      5-min Rain = 0
KWA1 091241Z 31004KT M01/M01 A3035 RMK A01 T10101013  RH  098%=      5-min Rain = 0
KWA1 091242Z 31004KT M01/M01 A3035 RMK A01 T10101013  RH  098%=      5-min Rain = 0
KWA1 091243Z 31004KT M01/M01 A3035 RMK A01 T10101012  RH  098%=      5-min Rain = 0
KWA1 091244Z 31004KT M01/M01 A3035 RMK A01 T10101013  RH  098%=      5-min Rain = 0
KWA1 091245Z 31004KT M01/M01 A3035 RMK A01 T10101012  RH  098%=      5-min Rain = 0
KWA1 091246Z 31004KT M01/M01 A3035 RMK A01 T10101013  RH  098%=      5-min Rain = 0
KWA1 091247Z 32004KT M01/M01 A3035 RMK A01 T10101012  RH  098%=      5-min Rain = 0
KWA1 091248Z 32004KT M01/M01 A3035 RMK A01 T10101013  RH  098%=      5-min Rain = 0
KWA1 091249Z 31004KT M01/M01 A3035 RMK A01 T10101013  RH  098%=      5-min Rain = 0
KWA1 091250Z 31004KT M01/M01 A3035 RMK A01 T10101013  RH  098%=      5-min Rain = 0
KWA1 091251Z 31004KT M01/M01 A3035 RMK A01 T10101013  RH  098%=      5-min Rain = 0
KWA1 091252Z 31004KT M01/M01 A3036 RMK A01 T10101012  RH  098%=      5-min Rain = 0
KWA1 091253Z 31004KT M01/M01 A3036 RMK A01 T10101013  RH  098%=      5-min Rain = 0
KWA1 091254Z 31004KT M01/M01 A3036 RMK A01 T10101013  RH  098%=      5-min Rain = 0
KWA1 091255Z 31004KT M01/M01 A3036 RMK A01 T10101013  RH  098%=      5-min Rain = 0
KWA1 091256Z 31004KT M01/M01 A3036 RMK A01 T10101013  RH  098%=      5-min Rain = 0
KWA1 091257Z 30004KT M01/M01 A3036 RMK A01 T10101013  RH  098%=      5-min Rain = 0
KWA1 091258Z 30004KT M01/M01 A3036 RMK A01 T10101012  RH  098%=      5-min Rain = 0
KWA1 091259Z 30004KT M01/M01 A3036 RMK A01 T10101013  RH  098%=      5-min Rain = 0
KWA1 091300Z 30004KT M01/M01 A3036 RMK A01 T10101013  RH  098%=      5-min Rain = 0
KWA1 091301Z 30004KT M01/M01 A3036 RMK A01 T10101013  RH  098%=      5-min Rain = 0
KWA1 091302Z 30004KT M01/M01 A3036 RMK A01 T10101013  RH  098%=      5-min Rain = 0
KWA1 091303Z 30004KT M01/M01 A3036 RMK A01 T10111014  RH  098%=      5-min Rain = 0
KWA1 091304Z 30005KT M01/M01 A3036 RMK A01 T10111014  RH  098%=      5-min Rain = 0
KWA1 091305Z 30005KT M01/M01 A3036 RMK A01 T10111014  RH  098%=      5-min Rain = 0
KWA1 091306Z 30005KT M01/M01 A3036 RMK A01 T10111014  RH  098%=      5-min Rain = 0
KWA1 091307Z 30005KT M01/M01 A3036 RMK A01 T10111014  RH  098%=      5-min Rain = 0
KWA1 091308Z 31005KT M01/M01 A3036 RMK A01 T10111013  RH  098%=      5-min Rain = 0
KWA1 091309Z 31005KT M01/M01 A3036 RMK A01 T10111013  RH  098%=      5-min Rain = 0
KWA1 091310Z 31005KT M01/M01 A3036 RMK A01 T10101013  RH  098%=      5-min Rain = 0
KWA1 091311Z 31005KT M01/M01 A3036 RMK A01 T10101013  RH  098%=      5-min Rain = 0
KWA1 091312Z 31006KT M01/M01 A3036 RMK A01 T10101013  RH  098%=      5-min Rain = 0
KWA1 091313Z 31005KT M01/M01 A3036 RMK A01 T10111014  RH  098%=      5-min Rain = 0
KWA1 091314Z 31005KT M01/M01 A3036 RMK A01 T10111014  RH  098%=      5-min Rain = 0
KWA1 091315Z 31005KT M01/M01 A3036 RMK A01 T10111014  RH  098%=      5-min Rain = 0
KWA1 091316Z 31005KT M01/M01 A3036 RMK A01 T10111014  RH  098%=      5-min Rain = 0
KWA1 091317Z 31005KT M01/M01 A3036 RMK A01 T10111014  RH  098%=      5-min Rain = 0
KWA1 091318Z 31005KT M01/M01 A3036 RMK A01 T10111014  RH  098%=      5-min Rain = 0
KWA1 091319Z 31004KT M01/M01 A3036 RMK A01 T10111014  RH  098%=      5-min Rain = 0
KWA1 091320Z 32005KT M01/M01 A3036 RMK A01 T10111014  RH  098%=      5-min Rain = 0
KWA1 091321Z 32005KT M01/M01 A3036 RMK A01 T10111014  RH  098%=      5-min Rain = 0
KWA1 091322Z 32005KT M01/M01 A3036 RMK A01 T10111014  RH  098%=      5-min Rain = 0
KWA1 091323Z 32005KT M01/M01 A3036 RMK A01 T10111014  RH  098%=      5-min Rain = 0
KWA1 091324Z 32005KT M01/M01 A3036 RMK A01 T10111014  RH  098%=      5-min Rain = 0
KWA1 091325Z 32005KT M01/M01 A3036 RMK A01 T10111014  RH  098%=      5-min Rain = 0
KWA1 091326Z 32005KT M01/M01 A3036 RMK A01 T10111014  RH  098%=      5-min Rain = 0
KWA1 091327Z 32005KT M01/M01 A3036 RMK A01 T10111014  RH  098%=      5-min Rain = 0
KWA1 091328Z 32004KT M01/M01 A3036 RMK A01 T10111014  RH  098%=      5-min Rain = 0
KWA1 091329Z 32004KT M01/M01 A3036 RMK A01 T10111014  RH  098%=      5-min Rain = 0
KWA1 091330Z 32004KT M01/M01 A3036 RMK A01 T10111014  RH  098%=      5-min Rain = 0
KWA1 091331Z 32004KT M01/M01 A3036 RMK A01 T10111014  RH  098%=      5-min Rain = 0
KWA1 091332Z 32004KT M01/M01 A3036 RMK A01 T10111014  RH  098%=      5-min Rain = 0
KWA1 091333Z 32004KT M01/M01 A3036 RMK A01 T10111014  RH  098%=      5-min Rain = 0
KWA1 091334Z 32004KT M01/M01 A3036 RMK A01 T10111014  RH  098%=      5-min Rain = 0
KWA1 091335Z 32004KT M01/M01 A3036 RMK A01 T10111014  RH  098%=      5-min Rain = 0
KWA1 091336Z 32004KT M01/M01 A3036 RMK A01 T10111014  RH  098%=      5-min Rain = 0
KWA1 091337Z 31004KT M01/M01 A3036 RMK A01 T10111014  RH  098%=      5-min Rain = 0
KWA1 091338Z 32004KT M01/M01 A3036 RMK A01 T10111014  RH  098%=      5-min Rain = 0
KWA1 091339Z 32004KT M01/M01 A3037 RMK A01 T10111014  RH  098%=      5-min Rain = 0
KWA1 091340Z 32004KT M01/M01 A3037 RMK A01 T10111014  RH  098%=      5-min Rain = 0
KWA1 091341Z 32005KT M01/M01 A3037 RMK A01 T10111014  RH  098%=      5-min Rain = 0
KWA1 091342Z 32004KT M01/M01 A3037 RMK A01 T10111014  RH  098%=      5-min Rain = 0
KWA1 091343Z 33005KT M01/M01 A3037 RMK A01 T10101014  RH  097%=      5-min Rain = 0
KWA1 091344Z 33005KT M01/M01 A3037 RMK A01 T10101014  RH  097%=      5-min Rain = 0
KWA1 091345Z 33005KT M01/M01 A3037 RMK A01 T10101014  RH  097%=      5-min Rain = 0
KWA1 091346Z 32005KT M01/M01 A3037 RMK A01 T10101013  RH  097%=      5-min Rain = 0
KWA1 091347Z 33005KT M01/M01 A3037 RMK A01 T10091013  RH  097%=      5-min Rain = 0
KWA1 091348Z 32005KT M01/M01 A3037 RMK A01 T10091012  RH  097%=      5-min Rain = 0
KWA1 091349Z 33005KT M01/M01 A3037 RMK A01 T10081012  RH  097%=      5-min Rain = 0
KWA1 091350Z 32005KT M01/M01 A3037 RMK A01 T10081012  RH  097%=      5-min Rain = 0
KWA1 091351Z 32004KT M01/M01 A3037 RMK A01 T10071011  RH  097%=      5-min Rain = 0
KWA1 091352Z 32004KT M01/M01 A3037 RMK A01 T10071011  RH  097%=      5-min Rain = 0
KWA1 091353Z 32004KT M01/M01 A3037 RMK A01 T10061011  RH  097%=      5-min Rain = 0
KWA1 091354Z 32005KT M01/M01 A3037 RMK A01 T10061011  RH  097%=      5-min Rain = 0
KWA1 091355Z 32004KT M01/M01 A3037 RMK A01 T10061010  RH  097%=      5-min Rain = 0
KWA1 091356Z 33004KT M01/M01 A3037 RMK A01 T10051010  RH  096%=      5-min Rain = 0
KWA1 091357Z 33005KT M01/M01 A3037 RMK A01 T10051010  RH  096%=      5-min Rain = 0
KWA1 091358Z 33005KT M00/M01 A3037 RMK A01 T10041010  RH  096%=      5-min Rain = 0
KWA1 091359Z 33005KT M00/M01 A3038 RMK A01 T10041010  RH  096%=      5-min Rain = 0
KWA1 091400Z 33005KT M00/M01 A3038 RMK A01 T10041010  RH  096%=      5-min Rain = 0
KWA1 091401Z 33005KT M00/M01 A3038 RMK A01 T10031009  RH  095%=      5-min Rain = 0
KWA1 091402Z 33005KT M00/M01 A3038 RMK A01 T10031009  RH  095%=      5-min Rain = 0
KWA1 091403Z 33005KT M00/M01 A3038 RMK A01 T10021009  RH  095%=      5-min Rain = 0
KWA1 091404Z 33005KT M00/M01 A3038 RMK A01 T10021009  RH  095%=      5-min Rain = 0
KWA1 091405Z 33004KT M00/M01 A3038 RMK A01 T10021009  RH  095%=      5-min Rain = 0
KWA1 091406Z 33004KT M00/M01 A3038 RMK A01 T10011009  RH  094%=      5-min Rain = 0
KWA1 091407Z 33004KT M00/M01 A3038 RMK A01 T10011009  RH  094%=      5-min Rain = 0
KWA1 091408Z 33004KT 00/01 A3038 RMK A01 T00-000-9  RH  094%=      5-min Rain = 0
KWA1 091409Z 34004KT 00/01 A3038 RMK A01 T00-000-9  RH  094%=      5-min Rain = 0
KWA1 091410Z 34004KT 00/01 A3038 RMK A01 T00-000-9  RH  094%=      5-min Rain = 0
KWA1 091411Z 34004KT 00/01 A3038 RMK A01 T000000-9  RH  093%=      5-min Rain = 0
KWA1 091412Z 35004KT 00/M01 A3038 RMK A01 T00011009  RH  093%=      5-min Rain = 0
KWA1 091413Z 35004KT 00/M01 A3038 RMK A01 T00011009  RH  093%=      5-min Rain = 0
KWA1 091414Z 35004KT 00/M01 A3038 RMK A01 T00011009  RH  093%=      5-min Rain = 0
KWA1 091415Z 35004KT 00/M01 A3038 RMK A01 T00011009  RH  093%=      5-min Rain = 0
KWA1 091416Z 35004KT 00/M01 A3038 RMK A01 T00011009  RH  093%=      5-min Rain = 0
KWA1 091417Z 35004KT 00/M01 A3038 RMK A01 T00021009  RH  093%=      5-min Rain = 0
KWA1 091418Z 35004KT 00/M01 A3038 RMK A01 T00021009  RH  093%=      5-min Rain = 0
KWA1 091419Z 35003KT 00/M01 A3038 RMK A01 T00021008  RH  093%=      5-min Rain = 0
KWA1 091420Z 35004KT 00/M01 A3038 RMK A01 T00031008  RH  093%=      5-min Rain = 0
KWA1 091421Z 35004KT 00/M01 A3038 RMK A01 T00031007  RH  093%=      5-min Rain = 0
KWA1 091422Z 35004KT 00/M01 A3038 RMK A01 T00031007  RH  093%=      5-min Rain = 0
KWA1 091423Z 35005KT 00/M01 A3038 RMK A01 T00031007  RH  093%=      5-min Rain = 0
KWA1 091424Z 35005KT 00/M01 A3038 RMK A01 T00041007  RH  092%=      5-min Rain = 0
KWA1 091425Z 35005KT 01/M01 A3038 RMK A01 T00051007  RH  092%=      5-min Rain = 0
KWA1 091426Z 35005KT 01/M01 A3038 RMK A01 T00051007  RH  092%=      5-min Rain = 0
KWA1 091427Z 35004KT 01/M01 A3038 RMK A01 T00061007  RH  091%=      5-min Rain = 0
KWA1 091428Z 35004KT 01/M01 A3038 RMK A01 T00061007  RH  091%=      5-min Rain = 0
KWA1 091429Z 35005KT 01/M01 A3038 RMK A01 T00061006  RH  091%=      5-min Rain = 0
KWA1 091430Z 35005KT 01/M01 A3039 RMK A01 T00061007  RH  091%=      5-min Rain = 0
KWA1 091431Z 35005KT 01/M01 A3039 RMK A01 T00071007  RH  091%=      5-min Rain = 0
KWA1 091432Z 35005KT 01/M01 A3039 RMK A01 T00071007  RH  091%=      5-min Rain = 0
KWA1 091433Z 35004KT 01/M01 A3039 RMK A01 T00071007  RH  090%=      5-min Rain = 0
KWA1 091434Z 35005KT 01/M01 A3039 RMK A01 T00071007  RH  091%=      5-min Rain = 0
KWA1 091435Z 35005KT 01/M01 A3039 RMK A01 T00081006  RH  091%=      5-min Rain = 0
KWA1 091436Z 35006KT 01/M01 A3039 RMK A01 T00071007  RH  090%=      5-min Rain = 0
KWA1 091437Z 35005KT 01/M01 A3039 RMK A01 T00081007  RH  090%=      5-min Rain = 0
KWA1 091438Z 35005KT 01/M01 A3039 RMK A01 T00081007  RH  090%=      5-min Rain = 0
KWA1 091439Z 35006KT 01/M01 A3039 RMK A01 T00071007  RH  090%=      5-min Rain = 0
KWA1 091440Z 35005KT 01/M01 A3039 RMK A01 T00071007  RH  090%=      5-min Rain = 0
KWA1 091441Z 35005KT 01/M01 A3039 RMK A01 T00081007  RH  090%=      5-min Rain = 0
KWA1 091442Z 35006KT 01/M01 A3039 RMK A01 T00081007  RH  090%=      5-min Rain = 0
KWA1 091443Z 35005KT 01/M01 A3039 RMK A01 T00081007  RH  090%=      5-min Rain = 0
KWA1 091444Z 35005KT 01/M01 A3039 RMK A01 T00081007  RH  090%=      5-min Rain = 0
KWA1 091445Z 35006KT 01/M01 A3039 RMK A01 T00081007  RH  090%=      5-min Rain = 0
KWA1 091446Z 35006KT 01/M01 A3039 RMK A01 T00081007  RH  090%=      5-min Rain = 0
KWA1 091447Z 35005KT 01/M01 A3039 RMK A01 T00081008  RH  089%=      5-min Rain = 0
KWA1 091448Z 35005KT 01/M01 A3039 RMK A01 T00081008  RH  089%=      5-min Rain = 0
KWA1 091449Z 35005KT 01/M01 A3039 RMK A01 T00091007  RH  090%=      5-min Rain = 0
KWA1 091450Z 35005KT 01/M01 A3039 RMK A01 T00091006  RH  090%=      5-min Rain = 0
KWA1 091451Z 35005KT 01/M01 A3039 RMK A01 T00091008  RH  089%=      5-min Rain = 0
KWA1 091452Z 35004KT 01/M01 A3039 RMK A01 T00091009  RH  088%=      5-min Rain = 0
KWA1 091453Z 35004KT 01/M01 A3039 RMK A01 T00091007  RH  089%=      5-min Rain = 0
KWA1 091454Z 35004KT 01/M01 A3039 RMK A01 T00101007  RH  089%=      5-min Rain = 0
KWA1 091455Z 35005KT 01/M01 A3039 RMK A01 T00101007  RH  088%=      5-min Rain = 0
KWA1 091456Z 35006KT 01/M01 A3039 RMK A01 T00101008  RH  088%=      5-min Rain = 0
KWA1 091457Z 35006KT 01/M01 A3039 RMK A01 T00101009  RH  087%=      5-min Rain = 0
KWA1 091458Z 35005KT 01/M01 A304 RMK A01 T00101010  RH  087%=      5-min Rain = 0
KWA1 091459Z 34005KT 01/M01 A304 RMK A01 T00101009  RH  087%=      5-min Rain = 0
KWA1 091500Z 35005KT 01/M01 A304 RMK A01 T00111008  RH  087%=      5-min Rain = 0
KWA1 091501Z 33004KT 01/M01 A304 RMK A01 T00111010  RH  086%=      5-min Rain = 0
KWA1 091502Z 34004KT 01/M01 A304 RMK A01 T00111009  RH  087%=      5-min Rain = 0
KWA1 091503Z 34005KT 01/M01 A304 RMK A01 T00121007  RH  087%=      5-min Rain = 0
KWA1 091504Z 34005KT 01/M01 A304 RMK A01 T00131009  RH  086%=      5-min Rain = 0
KWA1 091505Z 34004KT 01/M01 A304 RMK A01 T00121008  RH  086%=      5-min Rain = 0
KWA1 091506Z 34005KT 01/M01 A304 RMK A01 T00131006  RH  087%=      5-min Rain = 0
KWA1 091507Z 34005KT 01/M01 A304 RMK A01 T00131008  RH  086%=      5-min Rain = 0
KWA1 091508Z 34005KT 01/M01 A304 RMK A01 T00131007  RH  086%=      5-min Rain = 0
KWA1 091509Z 33005KT 01/M01 A304 RMK A01 T00141008  RH  086%=      5-min Rain = 0
KWA1 091510Z 33004KT 01/M01 A304 RMK A01 T00141008  RH  086%=      5-min Rain = 0
KWA1 091511Z 33003KT 01/M01 A304 RMK A01 T00141006  RH  086%=      5-min Rain = 0
KWA1 091512Z 33004KT 02/M00 A3041 RMK A01 T00161003  RH  087%=      5-min Rain = 0
KWA1 091513Z 33003KT 02/M00 A3041 RMK A01 T00171002  RH  087%=      5-min Rain = 0
KWA1 091514Z 33004KT 02/M00 A3041 RMK A01 T00171003  RH  087%=      5-min Rain = 0
KWA1 091515Z 34004KT 02/M01 A3041 RMK A01 T00171005  RH  085%=      5-min Rain = 0
KWA1 091516Z 33004KT 02/M01 A3041 RMK A01 T00171006  RH  085%=      5-min Rain = 0
KWA1 091517Z 33005KT 02/M01 A3041 RMK A01 T00171007  RH  084%=      5-min Rain = 0
KWA1 091518Z 34005KT 02/M01 A3041 RMK A01 T00171007  RH  084%=      5-min Rain = 0
KWA1 091519Z 33004KT 02/M01 A3041 RMK A01 T00171008  RH  084%=      5-min Rain = 0
KWA1 091520Z 34005KT 02/M01 A3041 RMK A01 T00171008  RH  084%=      5-min Rain = 0
KWA1 091521Z 35004KT 02/M01 A3041 RMK A01 T00181007  RH  084%=      5-min Rain = 0
KWA1 091522Z 34005KT 02/M01 A3041 RMK A01 T00181005  RH  084%=      5-min Rain = 0
KWA1 091523Z 34005KT 02/M01 A3041 RMK A01 T00191007  RH  083%=      5-min Rain = 0
KWA1 091524Z 34004KT 02/M01 A3041 RMK A01 T00191009  RH  082%=      5-min Rain = 0
KWA1 091525Z 33005KT 02/M01 A3041 RMK A01 T00191008  RH  082%=      5-min Rain = 0
KWA1 091526Z 34004KT 02/M01 A3041 RMK A01 T00191009  RH  082%=      5-min Rain = 0
KWA1 091527Z 34004KT 02/M01 A3041 RMK A01 T00191008  RH  082%=      5-min Rain = 0
KWA1 091528Z 34004KT 02/M01 A3041 RMK A01 T00201007  RH  082%=      5-min Rain = 0
KWA1 091529Z 35005KT 02/M00 A3041 RMK A01 T00221004  RH  083%=      5-min Rain = 0
KWA1 091530Z 34005KT 02/M01 A3041 RMK A01 T00221007  RH  081%=      5-min Rain = 0
KWA1 091531Z 35005KT 02/M01 A3041 RMK A01 T00221009  RH  080%=      5-min Rain = 0
KWA1 091532Z 34004KT 02/M01 A3041 RMK A01 T00221011  RH  079%=      5-min Rain = 0
KWA1 091533Z 35004KT 02/M01 A3041 RMK A01 T00221011  RH  079%=      5-min Rain = 0
KWA1 091534Z 35005KT 02/M01 A3041 RMK A01 T00221008  RH  080%=      5-min Rain = 0
KWA1 091535Z 35005KT 02/M01 A3041 RMK A01 T00221009  RH  080%=      5-min Rain = 0
KWA1 091536Z 36005KT 02/M01 A3041 RMK A01 T00231010  RH  079%=      5-min Rain = 0
KWA1 091537Z 36005KT 02/M01 A3041 RMK A01 T00231013  RH  077%=      5-min Rain = 0
KWA1 091538Z 36006KT 02/M02 A3041 RMK A01 T00231016  RH  075%=      5-min Rain = 0
KWA1 091539Z 35005KT 02/M02 A3041 RMK A01 T00241015  RH  075%=      5-min Rain = 0
KWA1 091540Z 34006KT 02/M01 A3041 RMK A01 T00241014  RH  076%=      5-min Rain = 0
KWA1 091541Z 35005KT 02/M02 A3041 RMK A01 T00241015  RH  075%=      5-min Rain = 0
KWA1 091542Z 34006KT 03/M01 A3041 RMK A01 T00251010  RH  077%=      5-min Rain = 0
KWA1 091543Z 34006KT 03/M01 A3041 RMK A01 T00261010  RH  077%=      5-min Rain = 0
KWA1 091544Z 34005KT 03/M01 A3041 RMK A01 T00261011  RH  076%=      5-min Rain = 0
KWA1 091545Z 34005KT 03/M01 A3041 RMK A01 T00271011  RH  076%=      5-min Rain = 0
KWA1 091546Z 34006KT 03/M02 A3041 RMK A01 T00271015  RH  074%=      5-min Rain = 0
KWA1 091547Z 34006KT 03/M01 A3042 RMK A01 T00271014  RH  074%=      5-min Rain = 0
KWA1 091548Z 34006KT 03/M01 A3042 RMK A01 T00281009  RH  076%=      5-min Rain = 0
KWA1 091549Z 34005KT 03/M01 A3042 RMK A01 T00281014  RH  074%=      5-min Rain = 0
KWA1 091550Z 34004KT 03/M02 A3042 RMK A01 T00271017  RH  073%=      5-min Rain = 0
KWA1 091551Z 34005KT 03/M01 A3042 RMK A01 T00281014  RH  074%=      5-min Rain = 0
KWA1 091552Z 34005KT 03/M01 A3042 RMK A01 T00291010  RH  075%=      5-min Rain = 0
KWA1 091553Z 35006KT 03/M01 A3042 RMK A01 T00301014  RH  073%=      5-min Rain = 0
KWA1 091554Z 35005KT 03/M02 A3042 RMK A01 T00301015  RH  073%=      5-min Rain = 0
KWA1 091555Z 36006KT 03/M01 A3042 RMK A01 T00311009  RH  075%=      5-min Rain = 0
KWA1 091556Z 34005KT 03/M01 A3042 RMK A01 T00311013  RH  073%=      5-min Rain = 0
KWA1 091557Z 33006KT 03/M01 A3042 RMK A01 T00311008  RH  076%=      5-min Rain = 0
KWA1 091558Z 33006KT 03/M01 A3042 RMK A01 T00311011  RH  074%=      5-min Rain = 0
KWA1 091559Z 33005KT 03/M01 A3042 RMK A01 T00311013  RH  073%=      5-min Rain = 0
KWA1 091600Z 34005KT 03/M01 A3042 RMK A01 T00311009  RH  075%=      5-min Rain = 0
KWA1 091601Z 34005KT 03/M01 A3042 RMK A01 T00311014  RH  072%=      5-min Rain = 0
KWA1 091602Z 35005KT 03/M02 A3042 RMK A01 T00301015  RH  072%=      5-min Rain = 0
KWA1 091603Z 34005KT 03/M01 A3042 RMK A01 T00301013  RH  073%=      5-min Rain = 0
KWA1 091604Z 33006KT 03/M01 A3042 RMK A01 T00311014  RH  072%=      5-min Rain = 0
KWA1 091605Z 34005KT 03/M01 A3042 RMK A01 T00311014  RH  072%=      5-min Rain = 0
KWA1 091606Z 34006KT 03/M01 A3042 RMK A01 T00311013  RH  072%=      5-min Rain = 0
KWA1 091607Z 34006KT 03/M01 A3042 RMK A01 T00331011  RH  073%=      5-min Rain = 0
KWA1 091608Z 34005KT 03/M01 A3042 RMK A01 T00331012  RH  072%=      5-min Rain = 0
KWA1 091609Z 35004KT 03/M01 A3042 RMK A01 T00331011  RH  073%=      5-min Rain = 0
KWA1 091610Z 34005KT 03/M02 A3042 RMK A01 T00331018  RH  069%=      5-min Rain = 0
KWA1 091611Z 34005KT 03/M01 A3042 RMK A01 T00331014  RH  071%=      5-min Rain = 0
KWA1 091612Z 33004KT 03/M02 A3042 RMK A01 T00331016  RH  070%=      5-min Rain = 0
KWA1 091613Z 34005KT 03/M02 A3042 RMK A01 T00331017  RH  070%=      5-min Rain = 0
KWA1 091614Z 33004KT 03/M01 A3042 RMK A01 T00331012  RH  072%=      5-min Rain = 0
KWA1 091615Z 35004KT 04/M01 A3042 RMK A01 T00351008  RH  074%=      5-min Rain = 0
KWA1 091616Z 36004KT 04/M01 A3042 RMK A01 T00361005  RH  074%=      5-min Rain = 0
KWA1 091617Z 02007KT 04/M01 A3043 RMK A01 T00371009  RH  072%=      5-min Rain = 0
KWA1 091618Z 01007KT 04/M02 A3043 RMK A01 T00371016  RH  068%=      5-min Rain = 0
KWA1 091619Z 01007KT 04/M02 A3043 RMK A01 T00371020  RH  066%=      5-min Rain = 0
KWA1 091620Z 00006KT 04/M02 A3043 RMK A01 T00371021  RH  066%=      5-min Rain = 0
KWA1 091621Z 00005KT 04/M02 A3043 RMK A01 T00371015  RH  069%=      5-min Rain = 0
KWA1 091622Z 01006KT 04/M01 A3043 RMK A01 T00391013  RH  069%=      5-min Rain = 0
KWA1 091623Z 01006KT 04/M02 A3043 RMK A01 T00391017  RH  067%=      5-min Rain = 0
KWA1 091624Z 01005KT 04/M02 A3043 RMK A01 T00391018  RH  066%=      5-min Rain = 0
KWA1 091625Z 35005KT 04/M02 A3042 RMK A01 T00391019  RH  066%=      5-min Rain = 0
KWA1 091626Z 34005KT 04/M02 A3042 RMK A01 T00401022  RH  064%=      5-min Rain = 0
KWA1 091627Z 01006KT 04/M02 A3042 RMK A01 T00401016  RH  067%=      5-min Rain = 0
KWA1 091628Z 02006KT 04/M01 A3042 RMK A01 T00421012  RH  068%=      5-min Rain = 0
KWA1 091629Z 02007KT 04/M02 A3043 RMK A01 T00411021  RH  064%=      5-min Rain = 0
KWA1 091630Z 01006KT 04/M03 A3043 RMK A01 T00401026  RH  062%=      5-min Rain = 0
KWA1 091631Z 01007KT 04/M02 A3043 RMK A01 T00391021  RH  065%=      5-min Rain = 0
KWA1 091632Z 00007KT 04/M02 A3043 RMK A01 T00411020  RH  064%=      5-min Rain = 0
KWA1 091633Z 36007KT 04/M02 A3043 RMK A01 T00411016  RH  066%=      5-min Rain = 0
KWA1 091634Z 35007KT 04/M02 A3043 RMK A01 T00421017  RH  066%=      5-min Rain = 0
KWA1 091635Z 35007KT 04/M02 A3043 RMK A01 T00421021  RH  063%=      5-min Rain = 0
KWA1 091636Z 36008KT 04/M02 A3043 RMK A01 T00421018  RH  065%=      5-min Rain = 0
KWA1 091637Z 36008KT 04/M02 A3043 RMK A01 T00421021  RH  063%=      5-min Rain = 0
KWA1 091638Z 36008KT 04/M02 A3043 RMK A01 T00411023  RH  063%=      5-min Rain = 0
KWA1 091639Z 01007KT 04/M02 A3043 RMK A01 T00411018  RH  065%=      5-min Rain = 0
KWA1 091640Z 00008KT 04/M02 A3043 RMK A01 T00421018  RH  065%=      5-min Rain = 0
KWA1 091641Z 01008KT 04/M02 A3043 RMK A01 T00421016  RH  066%=      5-min Rain = 0
KWA1 091642Z 01008KT 04/M02 A3043 RMK A01 T00441017  RH  065%=      5-min Rain = 0
KWA1 091643Z 00009KT 05/M02 A3043 RMK A01 T00451016  RH  065%=      5-min Rain = 0
KWA1 091644Z 01008KT 05/M02 A3043 RMK A01 T00451017  RH  064%=      5-min Rain = 0
KWA1 091645Z 01008KT 05/M02 A3043 RMK A01 T00451017  RH  064%=      5-min Rain = 0
KWA1 091646Z 00008KT 05/M02 A3043 RMK A01 T00451018  RH  064%=      5-min Rain = 0
KWA1 091647Z 01009KT 05/M02 A3043 RMK A01 T00461017  RH  064%=      5-min Rain = 0
KWA1 091648Z 02008KT 05/M03 A3043 RMK A01 T00461027  RH  059%=      5-min Rain = 0
KWA1 091649Z 02009KT 05/M03 A3043 RMK A01 T00461026  RH  060%=      5-min Rain = 0
KWA1 091650Z 01011KT 05/M03 A3043 RMK A01 T00471028  RH  058%=      5-min Rain = 0
KWA1 091651Z 01009KT 05/M03 A3043 RMK A01 T00471029  RH  058%=      5-min Rain = 0
KWA1 091652Z 00010KT 05/M03 A3043 RMK A01 T00471029  RH  058%=      5-min Rain = 0
KWA1 091653Z 01007KT 05/M03 A3043 RMK A01 T00471031  RH  057%=      5-min Rain = 0
KWA1 091654Z 03007KT 05/M02 A3043 RMK A01 T00481017  RH  063%=      5-min Rain = 0
KWA1 091655Z 03007KT 05/M02 A3043 RMK A01 T00501019  RH  061%=      5-min Rain = 0
KWA1 091656Z 03009KT 05/M02 A3043 RMK A01 T00501020  RH  061%=      5-min Rain = 0
KWA1 091657Z 02008KT 05/M02 A3043 RMK A01 T00501020  RH  060%=      5-min Rain = 0
KWA1 091658Z 02007KT 05/M02 A3042 RMK A01 T00491016  RH  062%=      5-min Rain = 0
KWA1 091659Z 02008KT 05/M02 A3042 RMK A01 T00491021  RH  060%=      5-min Rain = 0
KWA1 091700Z 01008KT 05/M02 A3042 RMK A01 T00501019  RH  061%=      5-min Rain = 0
KWA1 091701Z 02010KT 05/M02 A3042 RMK A01 T00521017  RH  061%=      5-min Rain = 0
KWA1 091702Z 02008KT 05/M02 A3042 RMK A01 T00511024  RH  058%=      5-min Rain = 0
KWA1 091703Z 02007KT 05/M03 A3042 RMK A01 T00491025  RH  058%=      5-min Rain = 0
KWA1 091704Z 02007KT 05/M02 A3042 RMK A01 T00501015  RH  063%=      5-min Rain = 0
KWA1 091705Z 02008KT 05/M03 A3042 RMK A01 T00511029  RH  056%=      5-min Rain = 0
KWA1 091706Z 01008KT 05/M02 A3042 RMK A01 T00511024  RH  058%=      5-min Rain = 0
KWA1 091707Z 01008KT 05/M02 A3042 RMK A01 T00511020  RH  060%=      5-min Rain = 0
KWA1 091708Z 01008KT 05/M01 A3042 RMK A01 T00531012  RH  063%=      5-min Rain = 0
KWA1 091709Z 01010KT 06/M02 A3042 RMK A01 T00551015  RH  061%=      5-min Rain = 0
KWA1 091710Z 01008KT 05/M02 A3042 RMK A01 T00541018  RH  060%=      5-min Rain = 0
KWA1 091711Z 35008KT 05/M02 A3042 RMK A01 T00541018  RH  060%=      5-min Rain = 0
KWA1 091712Z 01009KT 05/M03 A3042 RMK A01 T00541025  RH  057%=      5-min Rain = 0
KWA1 091713Z 02009KT 05/M03 A3042 RMK A01 T00541031  RH  054%=      5-min Rain = 0
KWA1 091714Z 02009KT 05/M03 A3042 RMK A01 T00541033  RH  054%=      5-min Rain = 0
KWA1 091715Z 03010KT 05/M03 A3042 RMK A01 T00541025  RH  057%=      5-min Rain = 0
KWA1 091716Z 02009KT 06/M03 A3042 RMK A01 T00551033  RH  053%=      5-min Rain = 0
KWA1 091717Z 01010KT 05/M03 A3042 RMK A01 T00541030  RH  054%=      5-min Rain = 0
KWA1 091718Z 36011KT 06/M03 A3042 RMK A01 T00551031  RH  054%=      5-min Rain = 0
KWA1 091719Z 00008KT 06/M03 A3042 RMK A01 T00551033  RH  053%=      5-min Rain = 0
KWA1 091720Z 01010KT 06/M03 A3042 RMK A01 T00551030  RH  054%=      5-min Rain = 0
KWA1 091721Z 01011KT 06/M04 A3042 RMK A01 T00561036  RH  052%=      5-min Rain = 0
KWA1 091722Z 01010KT 06/M04 A3042 RMK A01 T00561044  RH  049%=      5-min Rain = 0
KWA1 091723Z 01012KT 06/M04 A3042 RMK A01 T00561038  RH  051%=      5-min Rain = 0
KWA1 091724Z 00012KT 06/M03 A3042 RMK A01 T00561033  RH  053%=      5-min Rain = 0
KWA1 091725Z 00010KT 06/M03 A3042 RMK A01 T00561029  RH  055%=      5-min Rain = 0
KWA1 091726Z 35010KT 06/M03 A3042 RMK A01 T00551025  RH  056%=      5-min Rain = 0
KWA1 091727Z 35011KT 06/M03 A3042 RMK A01 T00571028  RH  055%=      5-min Rain = 0
KWA1 091728Z 00011KT 06/M03 A3042 RMK A01 T00581027  RH  055%=      5-min Rain = 0
KWA1 091729Z 35011KT 06/M04 A3042 RMK A01 T00581038  RH  050%=      5-min Rain = 0
KWA1 091730Z 00011KT 06/M04 A3042 RMK A01 T00571038  RH  050%=      5-min Rain = 0
KWA1 091731Z 02008KT 06/M04 A3042 RMK A01 T00561039  RH  050%=      5-min Rain = 0
KWA1 091732Z 36008G13KT 06/M03 A3042 RMK A01 T00561028  RH  054%=      5-min Rain = 0
KWA1 091733Z 35011KT 06/M04 A3042 RMK A01 T00581035  RH  051%=      5-min Rain = 0
KWA1 091734Z 36009KT 06/M04 A3042 RMK A01 T00571039  RH  050%=      5-min Rain = 0
KWA1 091735Z 34009KT 06/M02 A3042 RMK A01 T00581023  RH  056%=      5-min Rain = 0
KWA1 091736Z 01011KT 06/M02 A3042 RMK A01 T00601020  RH  056%=      5-min Rain = 0
KWA1 091737Z 01007KT 06/M03 A3042 RMK A01 T00591034  RH  051%=      5-min Rain = 0
KWA1 091738Z 36007G12KT 06/M03 A3042 RMK A01 T00581027  RH  054%=      5-min Rain = 0
KWA1 091739Z 35009KT 06/M03 A3042 RMK A01 T00581028  RH  054%=      5-min Rain = 0
KWA1 091740Z 35011KT 06/M02 A3041 RMK A01 T00591024  RH  055%=      5-min Rain = 0
KWA1 091741Z 36010KT 06/M03 A3041 RMK A01 T00611027  RH  053%=      5-min Rain = 0
KWA1 091742Z 00008KT 06/M02 A3041 RMK A01 T00601024  RH  055%=      5-min Rain = 0
KWA1 091743Z 34009KT 06/M02 A3041 RMK A01 T00601023  RH  055%=      5-min Rain = 0
KWA1 091744Z 35011KT 06/M03 A3041 RMK A01 T00611034  RH  051%=      5-min Rain = 0
KWA1 091745Z 35010KT 06/M03 A3041 RMK A01 T00591029  RH  053%=      5-min Rain = 0
KWA1 091746Z 35012KT 06/M03 A3041 RMK A01 T00591025  RH  055%=      5-min Rain = 0
KWA1 091747Z 36008KT 06/M03 A3041 RMK A01 T00591030  RH  053%=      5-min Rain = 0
KWA1 091748Z 35008KT 06/M02 A3041 RMK A01 T00591023  RH  055%=      5-min Rain = 0
KWA1 091749Z 01007KT 06/M02 A3041 RMK A01 T00601024  RH  055%=      5-min Rain = 0
KWA1 091750Z 01009KT 06/M02 A3041 RMK A01 T00611023  RH  055%=      5-min Rain = 0
KWA1 091751Z 35011KT 06/M03 A3041 RMK A01 T00611025  RH  054%=      5-min Rain = 0
KWA1 091752Z 01010KT 06/M03 A3041 RMK A01 T00601028  RH  053%=      5-min Rain = 0
KWA1 091753Z 01010KT 06/M03 A3041 RMK A01 T00601028  RH  053%=      5-min Rain = 0
KWA1 091754Z 02007KT 06/M03 A3041 RMK A01 T00591034  RH  051%=      5-min Rain = 0
KWA1 091755Z 01009KT 06/M03 A3041 RMK A01 T00581029  RH  053%=      5-min Rain = 0
KWA1 091756Z 36008KT 06/M03 A3041 RMK A01 T00601026  RH  054%=      5-min Rain = 0
KWA1 091757Z 35007KT 06/M02 A3041 RMK A01 T00601019  RH  057%=      5-min Rain = 0
KWA1 091758Z 35009KT 06/M03 A3041 RMK A01 T00611026  RH  054%=      5-min Rain = 0
KWA1 091759Z 36009KT 06/M02 A3041 RMK A01 T00621021  RH  056%=      5-min Rain = 0
KWA1 091800Z 01009KT 06/M02 A3041 RMK A01 T00631016  RH  057%=      5-min Rain = 0
KWA1 091801Z 01007KT 06/M03 A3041 RMK A01 T00621025  RH  054%=      5-min Rain = 0
KWA1 091802Z 01007KT 06/M02 A304 RMK A01 T00611024  RH  054%=      5-min Rain = 0
KWA1 091803Z 01008KT 06/M02 A304 RMK A01 T00621023  RH  054%=      5-min Rain = 0
KWA1 091804Z 02008KT 06/M02 A304 RMK A01 T00621024  RH  054%=      5-min Rain = 0
KWA1 091805Z 02008KT 06/M02 A304 RMK A01 T00621022  RH  055%=      5-min Rain = 0
KWA1 091806Z 01008KT 06/M02 A304 RMK A01 T00621022  RH  055%=      5-min Rain = 0
KWA1 091807Z 36008KT 06/M02 A304 RMK A01 T00621020  RH  056%=      5-min Rain = 0
KWA1 091808Z 01007KT 06/M02 A304 RMK A01 T00611023  RH  055%=      5-min Rain = 0
KWA1 091809Z 03009KT 06/M02 A304 RMK A01 T00611023  RH  055%=      5-min Rain = 0
KWA1 091810Z 01009KT 06/M01 A304 RMK A01 T00621014  RH  058%=      5-min Rain = 0
KWA1 091811Z 35008KT 06/M02 A304 RMK A01 T00631020  RH  055%=      5-min Rain = 0
KWA1 091812Z 00008KT 06/M02 A304 RMK A01 T00611016  RH  058%=      5-min Rain = 0
KWA1 091813Z 35004KT 06/M03 A304 RMK A01 T00601026  RH  054%=      5-min Rain = 0
KWA1 091814Z 36006KT 06/M02 A304 RMK A01 T00591019  RH  057%=      5-min Rain = 0
KWA1 091815Z 01008KT 06/M01 A304 RMK A01 T00611013  RH  059%=      5-min Rain = 0
KWA1 091816Z 36008KT 06/M01 A304 RMK A01 T00611013  RH  059%=      5-min Rain = 0
KWA1 091817Z 01008KT 06/M01 A304 RMK A01 T00621014  RH  059%=      5-min Rain = 0
KWA1 091818Z 02007KT 06/M02 A304 RMK A01 T00621017  RH  057%=      5-min Rain = 0
KWA1 091819Z 01008KT 06/M01 A304 RMK A01 T00621012  RH  059%=      5-min Rain = 0
KWA1 091820Z 01008KT 06/M01 A304 RMK A01 T00631013  RH  058%=      5-min Rain = 0
KWA1 091821Z 35007KT 06/M01 A304 RMK A01 T00641010  RH  059%=      5-min Rain = 0
KWA1 091822Z 00007KT 06/M01 A304 RMK A01 T00641010  RH  059%=      5-min Rain = 0
KWA1 091823Z 01008KT 06/M01 A304 RMK A01 T00641006  RH  061%=      5-min Rain = 0
KWA1 091824Z 02007KT 06/M01 A304 RMK A01 T00641011  RH  059%=      5-min Rain = 0
KWA1 091825Z 02005KT 06/M02 A304 RMK A01 T00621018  RH  056%=      5-min Rain = 0
KWA1 091826Z 00007KT 06/M01 A304 RMK A01 T00611014  RH  059%=      5-min Rain = 0
KWA1 091827Z 01006KT 06/M01 A304 RMK A01 T00621006  RH  062%=      5-min Rain = 0
KWA1 091828Z 03006KT 06/00 A304 RMK A01 T006400-0  RH  063%=      5-min Rain = 0
KWA1 091829Z 02005KT 07/M00 A304 RMK A01 T00651002  RH  062%=      5-min Rain = 0
KWA1 091830Z 01005KT 07/M01 A3039 RMK A01 T00651007  RH  060%=      5-min Rain = 0
KWA1 091831Z 36008KT 07/00 A3039 RMK A01 T006500-0  RH  063%=      5-min Rain = 0
KWA1 091832Z 01006KT 06/M00 A3039 RMK A01 T00641003  RH  062%=      5-min Rain = 0
KWA1 091833Z 36008KT 06/M00 A3039 RMK A01 T00641002  RH  063%=      5-min Rain = 0
KWA1 091834Z 00008KT 06/M00 A3039 RMK A01 T00641001  RH  063%=      5-min Rain = 0
KWA1 091835Z 02007KT 07/01 A3039 RMK A01 T00660009  RH  067%=      5-min Rain = 0
KWA1 091836Z 01007KT 07/00 A3039 RMK A01 T00680004  RH  064%=      5-min Rain = 0
KWA1 091837Z 36006KT 07/M01 A3039 RMK A01 T00671005  RH  060%=      5-min Rain = 0
KWA1 091838Z 36006KT 07/00 A3039 RMK A01 T00660002  RH  064%=      5-min Rain = 0
KWA1 091839Z 03007KT 07/01 A3039 RMK A01 T00670007  RH  066%=      5-min Rain = 0
KWA1 091840Z 02007KT 07/M00 A3039 RMK A01 T00671001  RH  062%=      5-min Rain = 0
KWA1 091841Z 35007KT 07/00 A3038 RMK A01 T00670001  RH  063%=      5-min Rain = 0
KWA1 091842Z 36005KT 07/00 A3038 RMK A01 T00670004  RH  064%=      5-min Rain = 0
KWA1 091843Z 00004KT 07/00 A3038 RMK A01 T00670003  RH  063%=      5-min Rain = 0
KWA1 091844Z 01007KT 07/00 A3038 RMK A01 T00670001  RH  062%=      5-min Rain = 0
KWA1 091845Z 01007KT 07/M01 A3038 RMK A01 T00671005  RH  060%=      5-min Rain = 0
KWA1 091846Z 01007KT 07/00 A3038 RMK A01 T00670002  RH  063%=      5-min Rain = 0
KWA1 091847Z 35007KT 07/M00 A3038 RMK A01 T00671004  RH  060%=      5-min Rain = 0
KWA1 091848Z 36005KT 07/M01 A3038 RMK A01 T00651012  RH  058%=      5-min Rain = 0
KWA1 091849Z 01005KT 06/M01 A3038 RMK A01 T00641010  RH  059%=      5-min Rain = 0
KWA1 091850Z 00005KT 07/M00 A3038 RMK A01 T00651002  RH  062%=      5-min Rain = 0
KWA1 091851Z 00006KT 07/M00 A3038 RMK A01 T00671002  RH  061%=      5-min Rain = 0
KWA1 091852Z 04006KT 07/00 A3038 RMK A01 T00680004  RH  063%=      5-min Rain = 0
KWA1 091853Z 04006KT 07/00 A3038 RMK A01 T007000-0  RH  061%=      5-min Rain = 0
KWA1 091854Z 04007KT 07/01 A3038 RMK A01 T00700006  RH  064%=      5-min Rain = 0
KWA1 091855Z 04005KT 07/M01 A3037 RMK A01 T00701007  RH  058%=      5-min Rain = 0
KWA1 091856Z 04006KT 07/M00 A3037 RMK A01 T00691004  RH  060%=      5-min Rain = 0
KWA1 091857Z 04006KT 07/M00 A3037 RMK A01 T00681004  RH  060%=      5-min Rain = 0
KWA1 091858Z 36007KT 07/00 A3037 RMK A01 T00680002  RH  063%=      5-min Rain = 0
KWA1 091859Z 35008KT 07/00 A3037 RMK A01 T00690002  RH  062%=      5-min Rain = 0
KWA1 091900Z 34007KT 07/00 A3037 RMK A01 T006900-0  RH  061%=      5-min Rain = 0
KWA1 091901Z 01009KT 07/01 A3037 RMK A01 T00700005  RH  063%=      5-min Rain = 0
KWA1 091902Z 02006KT 07/M00 A3037 RMK A01 T00701001  RH  060%=      5-min Rain = 0
KWA1 091903Z 03005KT 07/M00 A3037 RMK A01 T00691004  RH  060%=      5-min Rain = 0
KWA1 091904Z 03007KT 07/00 A3037 RMK A01 T00690002  RH  062%=      5-min Rain = 0
KWA1 091905Z 04008KT 07/01 A3037 RMK A01 T00700006  RH  064%=      5-min Rain = 0
KWA1 091906Z 03008KT 07/00 A3037 RMK A01 T00700001  RH  061%=      5-min Rain = 0
KWA1 091907Z 04008KT 07/00 A3037 RMK A01 T00700002  RH  062%=      5-min Rain = 0
KWA1 091908Z 02005KT 07/M00 A3037 RMK A01 T00701001  RH  061%=      5-min Rain = 0
KWA1 091909Z 36008KT 07/00 A3037 RMK A01 T00700002  RH  062%=      5-min Rain = 0
KWA1 091910Z 35006KT 07/M00 A3037 RMK A01 T00701003  RH  060%=      5-min Rain = 0
KWA1 091911Z 00009KT 07/M00 A3037 RMK A01 T00701003  RH  060%=      5-min Rain = 0
KWA1 091912Z 00005KT 07/M00 A3037 RMK A01 T00691001  RH  061%=      5-min Rain = 0
KWA1 091913Z 01005KT 07/00 A3037 RMK A01 T00690001  RH  062%=      5-min Rain = 0
KWA1 091914Z 01007KT 07/01 A3037 RMK A01 T00710007  RH  064%=      5-min Rain = 0
KWA1 091915Z 03010KT 07/01 A3037 RMK A01 T00730005  RH  062%=      5-min Rain = 0
KWA1 091916Z 01008KT 07/00 A3037 RMK A01 T00720003  RH  061%=      5-min Rain = 0
KWA1 091917Z 01007KT 07/M00 A3037 RMK A01 T00701001  RH  060%=      5-min Rain = 0
KWA1 091918Z 01006KT 07/M00 A3037 RMK A01 T00701003  RH  060%=      5-min Rain = 0
KWA1 091919Z 00006KT 07/00 A3037 RMK A01 T00690001  RH  062%=      5-min Rain = 0
KWA1 091920Z 01006KT 07/M00 A3037 RMK A01 T00701001  RH  061%=      5-min Rain = 0
KWA1 091921Z 03008G13KT 07/00 A3037 RMK A01 T00700003  RH  063%=      5-min Rain = 0
KWA1 091922Z 01011KT 07/00 A3037 RMK A01 T00720003  RH  062%=      5-min Rain = 0
KWA1 091923Z 00009KT 07/00 A3037 RMK A01 T00720001  RH  061%=      5-min Rain = 0
KWA1 091924Z 00008KT 07/01 A3037 RMK A01 T00730005  RH  062%=      5-min Rain = 0
KWA1 091925Z 36005KT 07/00 A3037 RMK A01 T00730002  RH  061%=      5-min Rain = 0
KWA1 091926Z 00008KT 07/00 A3037 RMK A01 T00720002  RH  061%=      5-min Rain = 0
KWA1 091927Z 01008KT 07/00 A3037 RMK A01 T00720002  RH  061%=      5-min Rain = 0
KWA1 091928Z 01009KT 07/01 A3036 RMK A01 T00730009  RH  064%=      5-min Rain = 0
KWA1 091929Z 02008KT 07/00 A3036 RMK A01 T00730001  RH  060%=      5-min Rain = 0
KWA1 091930Z 03008KT 07/M00 A3037 RMK A01 T00721001  RH  060%=      5-min Rain = 0
KWA1 091931Z 02007KT 07/M00 A3037 RMK A01 T00721001  RH  060%=      5-min Rain = 0
KWA1 091932Z 02005KT 07/M00 A3036 RMK A01 T00711003  RH  059%=      5-min Rain = 0
KWA1 091933Z 02009KT 07/00 A3036 RMK A01 T00700001  RH  061%=      5-min Rain = 0
KWA1 091934Z 02007KT 07/00 A3036 RMK A01 T00710003  RH  062%=      5-min Rain = 0
KWA1 091935Z 02004KT 07/00 A3036 RMK A01 T00720002  RH  061%=      5-min Rain = 0
KWA1 091936Z 01003KT 07/00 A3036 RMK A01 T00720003  RH  061%=      5-min Rain = 0
KWA1 091937Z 01008KT 07/00 A3036 RMK A01 T00730004  RH  062%=      5-min Rain = 0
KWA1 091938Z 02006KT 07/00 A3036 RMK A01 T00740003  RH  061%=      5-min Rain = 0
KWA1 091939Z 03004KT 07/M00 A3036 RMK A01 T00731002  RH  059%=      5-min Rain = 0
KWA1 091940Z 01006KT 07/01 A3036 RMK A01 T00730005  RH  062%=      5-min Rain = 0
KWA1 091941Z 02007KT 08/01 A3036 RMK A01 T00750009  RH  063%=      5-min Rain = 0
KWA1 091942Z 02008KT 08/01 A3036 RMK A01 T00770008  RH  062%=      5-min Rain = 0
KWA1 091943Z 02010KT 08/01 A3036 RMK A01 T00770007  RH  061%=      5-min Rain = 0
KWA1 091944Z 02009KT 08/00 A3036 RMK A01 T00750000  RH  059%=      5-min Rain = 0
KWA1 091945Z 02010KT 07/00 A3036 RMK A01 T00740002  RH  060%=      5-min Rain = 0
KWA1 091946Z 02007KT 08/01 A3036 RMK A01 T00750007  RH  062%=      5-min Rain = 0
KWA1 091947Z 03009KT 08/00 A3036 RMK A01 T00760003  RH  060%=      5-min Rain = 0
KWA1 091948Z 02006KT 08/M00 A3036 RMK A01 T00751001  RH  059%=      5-min Rain = 0
KWA1 091949Z 02005KT 07/M00 A3036 RMK A01 T00731003  RH  058%=      5-min Rain = 0
KWA1 091950Z 01005KT 07/00 A3036 RMK A01 T00730003  RH  061%=      5-min Rain = 0
KWA1 091951Z 36006KT 08/01 A3036 RMK A01 T00760010  RH  063%=      5-min Rain = 0
KWA1 091952Z 35007KT 08/00 A3036 RMK A01 T00780003  RH  059%=      5-min Rain = 0
KWA1 091953Z 36006KT 08/00 A3036 RMK A01 T00770001  RH  059%=      5-min Rain = 0
KWA1 091954Z 36009KT 08/01 A3036 RMK A01 T00770006  RH  061%=      5-min Rain = 0
KWA1 091955Z 36007KT 08/01 A3036 RMK A01 T00770008  RH  062%=      5-min Rain = 0
KWA1 091956Z 01005KT 08/00 A3036 RMK A01 T00770004  RH  060%=      5-min Rain = 0
KWA1 091957Z 01009KT 08/01 A3036 RMK A01 T00760007  RH  061%=      5-min Rain = 0
KWA1 091958Z 01010KT 08/01 A3036 RMK A01 T00780007  RH  061%=      5-min Rain = 0
KWA1 091959Z 36009KT 08/01 A3036 RMK A01 T00780007  RH  061%=      5-min Rain = 0
KWA1 092000Z 35008KT 08/00 A3036 RMK A01 T00780004  RH  059%=      5-min Rain = 0
KWA1 092001Z 35006KT 08/M00 A3036 RMK A01 T00761004  RH  057%=      5-min Rain = 0
KWA1 092002Z 01006KT 08/00 A3036 RMK A01 T00750002  RH  060%=      5-min Rain = 0
KWA1 092003Z 34007KT 08/00 A3036 RMK A01 T00750002  RH  060%=      5-min Rain = 0
KWA1 092004Z 33005KT 08/00 A3036 RMK A01 T00760004  RH  061%=      5-min Rain = 0
KWA1 092005Z 00009KT 08/01 A3035 RMK A01 T00780007  RH  061%=      5-min Rain = 0
KWA1 092006Z 01010KT 08/00 A3036 RMK A01 T00780004  RH  060%=      5-min Rain = 0
KWA1 092007Z 35009KT 08/00 A3035 RMK A01 T00780001  RH  058%=      5-min Rain = 0
KWA1 092008Z 35008KT 08/00 A3035 RMK A01 T00770003  RH  059%=      5-min Rain = 0
KWA1 092009Z 00008KT 08/00 A3035 RMK A01 T00770004  RH  060%=      5-min Rain = 0
KWA1 092010Z 01005KT 08/01 A3035 RMK A01 T00770006  RH  061%=      5-min Rain = 0
KWA1 092011Z 04004KT 08/01 A3035 RMK A01 T00790012  RH  063%=      5-min Rain = 0
KWA1 092012Z 02006KT 08/02 A3035 RMK A01 T00810015  RH  063%=      5-min Rain = 0
KWA1 092013Z 01010KT 08/01 A3035 RMK A01 T00820009  RH  060%=      5-min Rain = 0
KWA1 092014Z 01009KT 08/01 A3036 RMK A01 T00810007  RH  060%=      5-min Rain = 0
KWA1 092015Z 00007KT 08/00 A3035 RMK A01 T00790004  RH  059%=      5-min Rain = 0
KWA1 092016Z 01004KT 08/00 A3035 RMK A01 T00790002  RH  058%=      5-min Rain = 0
KWA1 092017Z 36004KT 08/00 A3035 RMK A01 T00790002  RH  058%=      5-min Rain = 0
KWA1 092018Z 00005KT 08/01 A3035 RMK A01 T00800011  RH  062%=      5-min Rain = 0
KWA1 092019Z 03009KT 08/01 A3035 RMK A01 T00820007  RH  059%=      5-min Rain = 0
KWA1 092020Z 03008KT 08/M00 A3035 RMK A01 T00811003  RH  055%=      5-min Rain = 0
KWA1 092021Z 01008KT 08/M01 A3035 RMK A01 T00791006  RH  055%=      5-min Rain = 0
KWA1 092022Z 02007KT 08/M00 A3035 RMK A01 T00791003  RH  056%=      5-min Rain = 0
KWA1 092023Z 04007KT 08/M01 A3035 RMK A01 T00791005  RH  055%=      5-min Rain = 0
KWA1 092024Z 04008KT 08/M00 A3035 RMK A01 T00791003  RH  056%=      5-min Rain = 0
KWA1 092025Z 03007KT 08/M00 A3035 RMK A01 T00801003  RH  056%=      5-min Rain = 0
KWA1 092026Z 02007KT 08/00 A3035 RMK A01 T008100-0  RH  057%=      5-min Rain = 0
KWA1 092027Z 02007G12KT 08/00 A3035 RMK A01 T00820003  RH  057%=      5-min Rain = 0
KWA1 092028Z 03011KT 08/00 A3035 RMK A01 T00830001  RH  056%=      5-min Rain = 0
KWA1 092029Z 02010KT 08/00 A3035 RMK A01 T00820001  RH  057%=      5-min Rain = 0
KWA1 092030Z 01006KT 08/00 A3035 RMK A01 T00810003  RH  058%=      5-min Rain = 0
KWA1 092031Z 36006KT 08/01 A3035 RMK A01 T00810008  RH  060%=      5-min Rain = 0
KWA1 092032Z 35007KT 08/00 A3035 RMK A01 T00820002  RH  057%=      5-min Rain = 0
KWA1 092033Z 01004KT 08/M01 A3035 RMK A01 T00811005  RH  055%=      5-min Rain = 0
KWA1 092034Z 04004KT 08/00 A3035 RMK A01 T00790002  RH  058%=      5-min Rain = 0
KWA1 092035Z 04006KT 08/01 A3035 RMK A01 T00810005  RH  059%=      5-min Rain = 0
KWA1 092036Z 05003KT 08/M01 A3035 RMK A01 T00811005  RH  055%=      5-min Rain = 0
KWA1 092037Z 03002KT 08/M01 A3035 RMK A01 T00801013  RH  052%=      5-min Rain = 0
KWA1 092038Z 01007KT 08/M00 A3035 RMK A01 T00791004  RH  056%=      5-min Rain = 0
KWA1 092039Z 01011KT 08/00 A3035 RMK A01 T00810004  RH  058%=      5-min Rain = 0
KWA1 092040Z 36009KT 08/M00 A3035 RMK A01 T00811002  RH  056%=      5-min Rain = 0
KWA1 092041Z 35007KT 08/00 A3035 RMK A01 T008100-0  RH  056%=      5-min Rain = 0
KWA1 092042Z 00009KT 08/01 A3035 RMK A01 T00820007  RH  059%=      5-min Rain = 0
KWA1 092043Z 02009KT 08/01 A3035 RMK A01 T00840009  RH  059%=      5-min Rain = 0
KWA1 092044Z 00008KT 08/01 A3035 RMK A01 T00840005  RH  057%=      5-min Rain = 0
KWA1 092045Z 35006KT 08/M00 A3035 RMK A01 T00821001  RH  056%=      5-min Rain = 0
KWA1 092046Z 01005KT 08/M01 A3035 RMK A01 T00811006  RH  054%=      5-min Rain = 0
KWA1 092047Z 34005KT 08/00 A3035 RMK A01 T00800001  RH  057%=      5-min Rain = 0
KWA1 092048Z 35006KT 08/00 A3035 RMK A01 T00820002  RH  057%=      5-min Rain = 0
KWA1 092049Z 35005KT 08/M00 A3035 RMK A01 T00821003  RH  055%=      5-min Rain = 0
KWA1 092050Z 34005KT 08/M00 A3035 RMK A01 T00821002  RH  055%=      5-min Rain = 0
KWA1 092051Z 35007KT 08/00 A3035 RMK A01 T00820003  RH  057%=      5-min Rain = 0
KWA1 092052Z 36008KT 08/00 A3035 RMK A01 T00830003  RH  057%=      5-min Rain = 0
KWA1 092053Z 01007KT 08/01 A3035 RMK A01 T00840006  RH  058%=      5-min Rain = 0
KWA1 092054Z 00007KT 08/00 A3035 RMK A01 T00840001  RH  056%=      5-min Rain = 0
KWA1 092055Z 35006KT 08/00 A3035 RMK A01 T00830003  RH  057%=      5-min Rain = 0
KWA1 092056Z 00006G11KT 08/00 A3035 RMK A01 T00830002  RH  057%=      5-min Rain = 0
KWA1 092057Z 03007KT 08/M00 A3035 RMK A01 T00831003  RH  054%=      5-min Rain = 0
KWA1 092058Z 02006KT 08/M01 A3035 RMK A01 T00821008  RH  053%=      5-min Rain = 0
KWA1 092059Z 02010G15KT 08/M00 A3035 RMK A01 T00821001  RH  056%=      5-min Rain = 0
KWA1 092100Z 01008KT 09/01 A3035 RMK A01 T00850013  RH  061%=      5-min Rain = 0
KWA1 092101Z 02009KT 09/01 A3035 RMK A01 T00870005  RH  057%=      5-min Rain = 0
KWA1 092102Z 03008KT 09/00 A3035 RMK A01 T00850001  RH  055%=      5-min Rain = 0
KWA1 092103Z 03007KT 09/01 A3035 RMK A01 T00850005  RH  057%=      5-min Rain = 0
KWA1 092104Z 01006KT 09/00 A3035 RMK A01 T00850001  RH  055%=      5-min Rain = 0
KWA1 092105Z 01008KT 09/00 A3035 RMK A01 T008500-0  RH  055%=      5-min Rain = 0
KWA1 092106Z 02007KT 08/00 A3035 RMK A01 T00840002  RH  056%=      5-min Rain = 0
KWA1 092107Z 03007KT 09/01 A3035 RMK A01 T00850010  RH  059%=      5-min Rain = 0
KWA1 092108Z 02008KT 09/01 A3035 RMK A01 T00870006  RH  057%=      5-min Rain = 0
KWA1 092109Z 03008KT 09/M00 A3035 RMK A01 T00851001  RH  054%=      5-min Rain = 0
KWA1 092110Z 02009KT 09/01 A3035 RMK A01 T00850007  RH  058%=      5-min Rain = 0
KWA1 092111Z 02007KT 09/01 A3035 RMK A01 T00860005  RH  057%=      5-min Rain = 0
KWA1 092112Z 01008KT 09/01 A3035 RMK A01 T00860008  RH  058%=      5-min Rain = 0
KWA1 092113Z 00007KT 09/00 A3035 RMK A01 T00850003  RH  056%=      5-min Rain = 0
KWA1 092114Z 01006KT 08/01 A3034 RMK A01 T00840006  RH  058%=      5-min Rain = 0
KWA1 092115Z 02007KT 09/01 A3034 RMK A01 T00850010  RH  059%=      5-min Rain = 0
KWA1 092116Z 02005KT 09/00 A3034 RMK A01 T00850004  RH  057%=      5-min Rain = 0
KWA1 092117Z 02005KT 09/01 A3034 RMK A01 T00860012  RH  059%=      5-min Rain = 0
KWA1 092118Z 01006KT 09/01 A3034 RMK A01 T00870009  RH  058%=      5-min Rain = 0
KWA1 092119Z 02006KT 09/01 A3034 RMK A01 T00870011  RH  059%=      5-min Rain = 0
KWA1 092120Z 03009KT 09/01 A3034 RMK A01 T00890012  RH  059%=      5-min Rain = 0
KWA1 092121Z 03008KT 09/00 A3034 RMK A01 T00870002  RH  055%=      5-min Rain = 0
KWA1 092122Z 02008KT 09/01 A3034 RMK A01 T00860005  RH  056%=      5-min Rain = 0
KWA1 092123Z 02007KT 09/01 A3034 RMK A01 T00860007  RH  058%=      5-min Rain = 0
KWA1 092124Z 02009KT 09/01 A3034 RMK A01 T00860005  RH  057%=      5-min Rain = 0
KWA1 092125Z 02008KT 09/00 A3034 RMK A01 T00860002  RH  056%=      5-min Rain = 0
KWA1 092126Z 03005KT 09/01 A3034 RMK A01 T00850009  RH  059%=      5-min Rain = 0
KWA1 092127Z 02005KT 09/01 A3034 RMK A01 T00860010  RH  059%=      5-min Rain = 0
KWA1 092128Z 03007KT 09/01 A3034 RMK A01 T00870009  RH  058%=      5-min Rain = 0
KWA1 092129Z 02008KT 09/01 A3034 RMK A01 T00870007  RH  057%=      5-min Rain = 0
KWA1 092130Z 04005KT 09/00 A3034 RMK A01 T00850002  RH  056%=      5-min Rain = 0
KWA1 092131Z 04004KT 09/01 A3034 RMK A01 T00850005  RH  057%=      5-min Rain = 0
KWA1 092132Z 04004KT 09/01 A3034 RMK A01 T00850008  RH  059%=      5-min Rain = 0
KWA1 092133Z 02007KT 09/00 A3034 RMK A01 T00850004  RH  057%=      5-min Rain = 0
KWA1 092134Z 36009KT 09/01 A3034 RMK A01 T00860007  RH  057%=      5-min Rain = 0
KWA1 092135Z 00009KT 09/00 A3034 RMK A01 T00860004  RH  056%=      5-min Rain = 0
KWA1 092136Z 36007KT 09/00 A3034 RMK A01 T00860004  RH  057%=      5-min Rain = 0
KWA1 092137Z 01006KT 09/01 A3034 RMK A01 T00860011  RH  059%=      5-min Rain = 0
KWA1 092138Z 01005KT 09/02 A3034 RMK A01 T00870015  RH  060%=      5-min Rain = 0
KWA1 092139Z 02006KT 09/01 A3034 RMK A01 T00880010  RH  058%=      5-min Rain = 0
KWA1 092140Z 02007KT 09/00 A3034 RMK A01 T00870003  RH  056%=      5-min Rain = 0
KWA1 092141Z 01009KT 09/01 A3034 RMK A01 T00870007  RH  057%=      5-min Rain = 0
KWA1 092142Z 02006KT 09/01 A3034 RMK A01 T00860006  RH  057%=      5-min Rain = 0
KWA1 092143Z 03006KT 09/01 A3034 RMK A01 T00860008  RH  058%=      5-min Rain = 0
KWA1 092144Z 01007KT 09/01 A3034 RMK A01 T00870013  RH  059%=      5-min Rain = 0
KWA1 092145Z 02009KT 09/01 A3034 RMK A01 T00880012  RH  059%=      5-min Rain = 0
KWA1 092146Z 02008KT 09/01 A3034 RMK A01 T00870007  RH  057%=      5-min Rain = 0
KWA1 092147Z 03007KT 09/01 A3034 RMK A01 T00860006  RH  057%=      5-min Rain = 0
KWA1 092148Z 03007KT 09/00 A3034 RMK A01 T00860002  RH  056%=      5-min Rain = 0
KWA1 092149Z 02008KT 09/01 A3034 RMK A01 T00860007  RH  058%=      5-min Rain = 0
KWA1 092150Z 02006KT 09/01 A3034 RMK A01 T00850009  RH  059%=      5-min Rain = 0
KWA1 092151Z 35005KT 09/01 A3034 RMK A01 T00860012  RH  060%=      5-min Rain = 0
KWA1 092152Z 01006KT 09/01 A3034 RMK A01 T00870010  RH  059%=      5-min Rain = 0
KWA1 092153Z 02005KT 09/01 A3034 RMK A01 T00870010  RH  058%=      5-min Rain = 0
KWA1 092154Z 02007KT 09/01 A3034 RMK A01 T00860008  RH  058%=      5-min Rain = 0
KWA1 092155Z 03006KT 09/01 A3034 RMK A01 T00870006  RH  057%=      5-min Rain = 0
KWA1 092156Z 02005KT 09/01 A3034 RMK A01 T00870006  RH  057%=      5-min Rain = 0
KWA1 092157Z 02005KT 09/01 A3034 RMK A01 T00860008  RH  058%=      5-min Rain = 0
KWA1 092158Z 00006KT 09/02 A3034 RMK A01 T00870016  RH  061%=      5-min Rain = 0
KWA1 092159Z 36006KT 09/01 A3034 RMK A01 T00880014  RH  060%=      5-min Rain = 0
KWA1 092200Z 01004KT 09/02 A3034 RMK A01 T00890017  RH  060%=      5-min Rain = 0
KWA1 092201Z 35006KT 09/02 A3034 RMK A01 T00900016  RH  060%=      5-min Rain = 0
KWA1 092202Z 36009KT 09/01 A3034 RMK A01 T00900012  RH  058%=      5-min Rain = 0
KWA1 092203Z 01009KT 09/01 A3034 RMK A01 T00890005  RH  056%=      5-min Rain = 0
KWA1 092204Z 01009KT 09/00 A3034 RMK A01 T00880003  RH  055%=      5-min Rain = 0
KWA1 092205Z 01009KT 09/01 A3034 RMK A01 T00880005  RH  056%=      5-min Rain = 0
KWA1 092206Z 02007KT 09/00 A3034 RMK A01 T00870002  RH  055%=      5-min Rain = 0
KWA1 092207Z 01006KT 09/01 A3034 RMK A01 T00870005  RH  056%=      5-min Rain = 0
KWA1 092208Z 01007KT 09/01 A3034 RMK A01 T00870007  RH  057%=      5-min Rain = 0
KWA1 092209Z 01009KT 09/01 A3034 RMK A01 T00870006  RH  056%=      5-min Rain = 0
KWA1 092210Z 01007KT 09/01 A3034 RMK A01 T00870005  RH  056%=      5-min Rain = 0
KWA1 092211Z 01006KT 09/01 A3034 RMK A01 T00870007  RH  057%=      5-min Rain = 0
KWA1 092212Z 03007KT 09/01 A3034 RMK A01 T00870007  RH  057%=      5-min Rain = 0
KWA1 092213Z 02006KT 09/01 A3034 RMK A01 T00880006  RH  056%=      5-min Rain = 0
KWA1 092214Z 01005KT 09/01 A3034 RMK A01 T00880014  RH  060%=      5-min Rain = 0
KWA1 092215Z 02006KT 09/02 A3034 RMK A01 T00900018  RH  061%=      5-min Rain = 0
KWA1 092216Z 02008KT 09/01 A3034 RMK A01 T00900012  RH  058%=      5-min Rain = 0
KWA1 092217Z 03008KT 09/01 A3034 RMK A01 T00890010  RH  058%=      5-min Rain = 0
KWA1 092218Z 03007KT 09/00 A3034 RMK A01 T00880003  RH  056%=      5-min Rain = 0
KWA1 092219Z 03006KT 09/00 A3034 RMK A01 T00870003  RH  056%=      5-min Rain = 0
KWA1 092220Z 03006KT 09/00 A3034 RMK A01 T00860003  RH  056%=      5-min Rain = 0
KWA1 092221Z 02008KT 09/01 A3034 RMK A01 T00860006  RH  057%=      5-min Rain = 0
KWA1 092222Z 01007KT 09/00 A3034 RMK A01 T00870002  RH  055%=      5-min Rain = 0
KWA1 092223Z 00007KT 09/01 A3034 RMK A01 T00860005  RH  057%=      5-min Rain = 0
KWA1 092224Z 01008KT 09/01 A3034 RMK A01 T00860010  RH  059%=      5-min Rain = 0
KWA1 092225Z 01007KT 09/01 A3034 RMK A01 T00860009  RH  058%=      5-min Rain = 0
KWA1 092226Z 02009KT 09/01 A3034 RMK A01 T00860010  RH  059%=      5-min Rain = 0
KWA1 092227Z 03007KT 09/01 A3034 RMK A01 T00870011  RH  059%=      5-min Rain = 0
KWA1 092228Z 03007KT 09/01 A3034 RMK A01 T00860010  RH  059%=      5-min Rain = 0
KWA1 092229Z 02007KT 09/01 A3034 RMK A01 T00860010  RH  059%=      5-min Rain = 0
KWA1 092230Z 01006KT 09/01 A3034 RMK A01 T00870012  RH  059%=      5-min Rain = 0
KWA1 092231Z 02006KT 09/01 A3034 RMK A01 T00870011  RH  059%=      5-min Rain = 0
KWA1 092232Z 03006KT 09/01 A3034 RMK A01 T00870011  RH  059%=      5-min Rain = 0
KWA1 092233Z 02008KT 09/01 A3034 RMK A01 T00880014  RH  060%=      5-min Rain = 0
KWA1 092234Z 02007KT 09/01 A3034 RMK A01 T00870012  RH  059%=      5-min Rain = 0
KWA1 092235Z 03007KT 09/01 A3034 RMK A01 T00860009  RH  058%=      5-min Rain = 0
KWA1 092236Z 02008KT 09/01 A3034 RMK A01 T00860011  RH  059%=      5-min Rain = 0
KWA1 092237Z 02008KT 09/01 A3034 RMK A01 T00860008  RH  058%=      5-min Rain = 0
KWA1 092238Z 02007KT 09/01 A3034 RMK A01 T00860008  RH  058%=      5-min Rain = 0
KWA1 092239Z 02005KT 09/01 A3034 RMK A01 T00850011  RH  060%=      5-min Rain = 0
KWA1 092240Z 03007KT 09/01 A3034 RMK A01 T00860012  RH  060%=      5-min Rain = 0
KWA1 092241Z 03006KT 09/01 A3034 RMK A01 T00860012  RH  059%=      5-min Rain = 0
KWA1 092242Z 03005KT 09/01 A3034 RMK A01 T00860012  RH  060%=      5-min Rain = 0
KWA1 092243Z 02006KT 09/01 A3034 RMK A01 T00860009  RH  059%=      5-min Rain = 0
KWA1 092244Z 02005KT 09/01 A3034 RMK A01 T00860011  RH  059%=      5-min Rain = 0
KWA1 092245Z 01007KT 09/01 A3034 RMK A01 T00860014  RH  060%=      5-min Rain = 0
KWA1 092246Z 02007KT 09/01 A3034 RMK A01 T00860010  RH  059%=      5-min Rain = 0
KWA1 092247Z 01007KT 09/01 A3034 RMK A01 T00860012  RH  060%=      5-min Rain = 0
KWA1 092248Z 00007KT 09/01 A3034 RMK A01 T00870011  RH  059%=      5-min Rain = 0
KWA1 092249Z 01006KT 09/01 A3034 RMK A01 T00870013  RH  060%=      5-min Rain = 0
KWA1 092250Z 02008KT 09/01 A3034 RMK A01 T00860012  RH  060%=      5-min Rain = 0
KWA1 092251Z 02007KT 09/01 A3034 RMK A01 T00860007  RH  058%=      5-min Rain = 0
KWA1 092252Z 02005KT 09/01 A3034 RMK A01 T00850011  RH  060%=      5-min Rain = 0
KWA1 092253Z 01006KT 09/01 A3034 RMK A01 T00850010  RH  059%=      5-min Rain = 0
KWA1 092254Z 02006KT 09/01 A3034 RMK A01 T00850009  RH  059%=      5-min Rain = 0
KWA1 092255Z 03007KT 09/01 A3034 RMK A01 T00850010  RH  059%=      5-min Rain = 0
KWA1 092256Z 02005KT 09/01 A3034 RMK A01 T00850010  RH  059%=      5-min Rain = 0
KWA1 092257Z 02006KT 09/01 A3034 RMK A01 T00850010  RH  059%=      5-min Rain = 0
KWA1 092258Z 02005KT 08/01 A3034 RMK A01 T00840010  RH  059%=      5-min Rain = 0
KWA1 092259Z 02006KT 08/01 A3034 RMK A01 T00840012  RH  060%=      5-min Rain = 0
KWA1 092300Z 02007KT 08/01 A3034 RMK A01 T00840009  RH  059%=      5-min Rain = 0
KWA1 092301Z 01006KT 08/01 A3034 RMK A01 T00840009  RH  059%=      5-min Rain = 0
KWA1 092302Z 01006KT 08/01 A3034 RMK A01 T00840007  RH  058%=      5-min Rain = 0
KWA1 092303Z 01006KT 08/01 A3034 RMK A01 T00840007  RH  059%=      5-min Rain = 0
KWA1 092304Z 01005KT 09/01 A3034 RMK A01 T00850011  RH  060%=      5-min Rain = 0
KWA1 092305Z 02005KT 08/01 A3034 RMK A01 T00840013  RH  061%=      5-min Rain = 0
KWA1 092306Z 03004KT 08/01 A3034 RMK A01 T00840011  RH  060%=      5-min Rain = 0
KWA1 092307Z 03004KT 08/01 A3034 RMK A01 T00840012  RH  061%=      5-min Rain = 0
KWA1 092308Z 03005KT 08/01 A3034 RMK A01 T00840012  RH  061%=      5-min Rain = 0
KWA1 092309Z 04004KT 08/01 A3034 RMK A01 T00830013  RH  062%=      5-min Rain = 0
KWA1 092310Z 04006KT 08/01 A3034 RMK A01 T00830012  RH  061%=      5-min Rain = 0
KWA1 092311Z 04006KT 08/01 A3034 RMK A01 T00820011  RH  061%=      5-min Rain = 0
KWA1 092312Z 03006KT 08/01 A3034 RMK A01 T00820013  RH  062%=      5-min Rain = 0
KWA1 092313Z 03006KT 08/01 A3034 RMK A01 T00810013  RH  062%=      5-min Rain = 0
KWA1 092314Z 04005KT 08/01 A3034 RMK A01 T00800014  RH  063%=      5-min Rain = 0
KWA1 092315Z 04006KT 08/01 A3034 RMK A01 T00800014  RH  063%=      5-min Rain = 0
KWA1 092316Z 04006KT 08/02 A3034 RMK A01 T00790015  RH  064%=      5-min Rain = 0
KWA1 092317Z 04005KT 08/01 A3034 RMK A01 T00790014  RH  064%=      5-min Rain = 0
KWA1 092318Z 04005KT 08/02 A3034 RMK A01 T00790015  RH  064%=      5-min Rain = 0
KWA1 092319Z 04005KT 08/02 A3034 RMK A01 T00780017  RH  065%=      5-min Rain = 0
KWA1 092320Z 03004KT 08/02 A3034 RMK A01 T00780018  RH  066%=      5-min Rain = 0
KWA1 092321Z 04005KT 08/02 A3034 RMK A01 T00770018  RH  066%=      5-min Rain = 0
KWA1 092322Z 04005KT 08/02 A3034 RMK A01 T00770017  RH  066%=      5-min Rain = 0
KWA1 092323Z 04004KT 08/02 A3034 RMK A01 T00760017  RH  066%=      5-min Rain = 0
KWA1 092324Z 04004KT 08/02 A3034 RMK A01 T00760017  RH  066%=      5-min Rain = 0
KWA1 092325Z 04004KT 08/02 A3034 RMK A01 T00760018  RH  067%=      5-min Rain = 0
KWA1 092326Z 04004KT 08/02 A3035 RMK A01 T00760017  RH  066%=      5-min Rain = 0
KWA1 092327Z 04004KT 08/02 A3035 RMK A01 T00750019  RH  067%=      5-min Rain = 0
KWA1 092328Z 03004KT 08/02 A3035 RMK A01 T00750019  RH  068%=      5-min Rain = 0
KWA1 092329Z 03005KT 07/02 A3035 RMK A01 T00740018  RH  067%=      5-min Rain = 0
KWA1 092330Z 03005KT 07/02 A3035 RMK A01 T00740018  RH  068%=      5-min Rain = 0
KWA1 092331Z 03005KT 07/02 A3035 RMK A01 T00730018  RH  068%=      5-min Rain = 0
KWA1 092332Z 03005KT 07/02 A3035 RMK A01 T00720018  RH  068%=      5-min Rain = 0
KWA1 092333Z 03005KT 07/02 A3035 RMK A01 T00720018  RH  069%=      5-min Rain = 0
KWA1 092334Z 03005KT 07/02 A3035 RMK A01 T00710017  RH  069%=      5-min Rain = 0
KWA1 092335Z 03005KT 07/02 A3035 RMK A01 T00700018  RH  069%=      5-min Rain = 0
KWA1 092336Z 03005KT 07/02 A3035 RMK A01 T00690018  RH  070%=      5-min Rain = 0
KWA1 092337Z 03005KT 07/02 A3035 RMK A01 T00680018  RH  070%=      5-min Rain = 0
KWA1 092338Z 04005KT 07/02 A3035 RMK A01 T00680017  RH  070%=      5-min Rain = 0
KWA1 092339Z 03005KT 07/02 A3035 RMK A01 T00670017  RH  070%=      5-min Rain = 0
KWA1 092340Z 03005KT 07/02 A3035 RMK A01 T00670018  RH  071%=      5-min Rain = 0
KWA1 092341Z 04005KT 07/02 A3035 RMK A01 T00660018  RH  071%=      5-min Rain = 0
KWA1 092342Z 04005KT 07/02 A3035 RMK A01 T00660017  RH  071%=      5-min Rain = 0
KWA1 092343Z 04005KT 07/02 A3035 RMK A01 T00650017  RH  071%=      5-min Rain = 0
KWA1 092344Z 04005KT 07/02 A3035 RMK A01 T00650017  RH  072%=      5-min Rain = 0
KWA1 092345Z 04005KT 06/02 A3035 RMK A01 T00640017  RH  072%=      5-min Rain = 0
KWA1 092346Z 04004KT 06/02 A3035 RMK A01 T00640016  RH  071%=      5-min Rain = 0
KWA1 092347Z 04005KT 06/02 A3035 RMK A01 T00640015  RH  071%=      5-min Rain = 0
KWA1 092348Z 04005KT 06/02 A3035 RMK A01 T00640016  RH  071%=      5-min Rain = 0
KWA1 092349Z 04004KT 06/02 A3035 RMK A01 T00640016  RH  071%=      5-min Rain = 0
KWA1 092350Z 04004KT 06/02 A3035 RMK A01 T00640017  RH  072%=      5-min Rain = 0
KWA1 092351Z 04003KT 06/02 A3035 RMK A01 T00630017  RH  073%=      5-min Rain = 0
KWA1 092352Z 05003KT 06/02 A3035 RMK A01 T00620018  RH  073%=      5-min Rain = 0
KWA1 092353Z 05003KT 06/02 A3035 RMK A01 T00610018  RH  074%=      5-min Rain = 0
KWA1 092354Z 04003KT 06/02 A3035 RMK A01 T00610018  RH  074%=      5-min Rain = 0
KWA1 092355Z 04003KT 06/02 A3035 RMK A01 T00600018  RH  075%=      5-min Rain = 0
KWA1 092356Z 04003KT 06/02 A3035 RMK A01 T00590018  RH  075%=      5-min Rain = 0
KWA1 092357Z 04003KT 06/02 A3035 RMK A01 T00580018  RH  075%=      5-min Rain = 0
KWA1 092358Z 04004KT 06/02 A3035 RMK A01 T00580019  RH  076%=      5-min Rain = 0
KWA1 092359Z 04004KT 06/02 A3035 RMK A01 T00580019  RH  076%=      5-min Rain = 0
KWA1 100000Z 04004KT 06/02 A3035 RMK A01 T00570020  RH  077%=      5-min Rain = 0
KWA1 100001Z 04004KT 06/02 A3035 RMK A01 T00570019  RH  077%=      5-min Rain = 0
KWA1 100002Z 04004KT 06/02 A3035 RMK A01 T00560020  RH  077%=      5-min Rain = 0
KWA1 100003Z 04004KT 06/02 A3035 RMK A01 T00560020  RH  078%=      5-min Rain = 0
KWA1 100004Z 04004KT 06/02 A3035 RMK A01 T00560020  RH  078%=      5-min Rain = 0
KWA1 100005Z 04005KT 06/02 A3035 RMK A01 T00550020  RH  078%=      5-min Rain = 0
KWA1 100006Z 04005KT 06/02 A3036 RMK A01 T00550021  RH  078%=      5-min Rain = 0
KWA1 100007Z 04005KT 05/02 A3036 RMK A01 T00540021  RH  079%=      5-min Rain = 0
KWA1 100008Z 04005KT 05/02 A3036 RMK A01 T00540021  RH  079%=      5-min Rain = 0
KWA1 100009Z 04005KT 05/02 A3036 RMK A01 T00530021  RH  079%=      5-min Rain = 0
KWA1 100010Z 05004KT 05/02 A3036 RMK A01 T00530021  RH  080%=      5-min Rain = 0
KWA1 100011Z 05004KT 05/02 A3036 RMK A01 T00530021  RH  080%=      5-min Rain = 0
KWA1 100012Z 05004KT 05/02 A3036 RMK A01 T00520020  RH  080%=      5-min Rain = 0
KWA1 100013Z 05004KT 05/02 A3036 RMK A01 T00510020  RH  080%=      5-min Rain = 0
KWA1 100014Z 05004KT 05/02 A3036 RMK A01 T00510020  RH  080%=      5-min Rain = 0
KWA1 100015Z 05004KT 05/02 A3036 RMK A01 T00510020  RH  080%=      5-min Rain = 0
KWA1 100016Z 05004KT 05/02 A3036 RMK A01 T00510020  RH  080%=      5-min Rain = 0
KWA1 100017Z 05004KT 05/02 A3036 RMK A01 T00500020  RH  081%=      5-min Rain = 0
KWA1 100018Z 05004KT 05/02 A3036 RMK A01 T00500019  RH  081%=      5-min Rain = 0
KWA1 100019Z 05004KT 05/02 A3036 RMK A01 T00500020  RH  081%=      5-min Rain = 0
KWA1 100020Z 05004KT 05/02 A3036 RMK A01 T00490019  RH  081%=      5-min Rain = 0
KWA1 100021Z 05004KT 05/02 A3036 RMK A01 T00490019  RH  081%=      5-min Rain = 0
KWA1 100022Z 05003KT 05/02 A3036 RMK A01 T00480019  RH  082%=      5-min Rain = 0
KWA1 100023Z 05003KT 05/02 A3036 RMK A01 T00480019  RH  082%=      5-min Rain = 0
KWA1 100024Z 05003KT 05/02 A3036 RMK A01 T00470020  RH  082%=      5-min Rain = 0
KWA1 100025Z 05003KT 05/02 A3036 RMK A01 T00460020  RH  083%=      5-min Rain = 0
KWA1 100026Z 06003KT 05/02 A3036 RMK A01 T00460021  RH  084%=      5-min Rain = 0
KWA1 100027Z 06003KT 05/02 A3036 RMK A01 T00460022  RH  084%=      5-min Rain = 0
KWA1 100028Z 06002KT 05/02 A3036 RMK A01 T00460022  RH  084%=      5-min Rain = 0
KWA1 100029Z 07003KT 05/02 A3036 RMK A01 T00460022  RH  084%=      5-min Rain = 0
KWA1 100030Z 07003KT 05/02 A3036 RMK A01 T00460021  RH  084%=      5-min Rain = 0
KWA1 100031Z 07002KT 05/02 A3036 RMK A01 T00460021  RH  084%=      5-min Rain = 0
KWA1 100032Z 07002KT 05/02 A3036 RMK A01 T00470021  RH  083%=      5-min Rain = 0
KWA1 100033Z 07002KT 05/02 A3036 RMK A01 T00470020  RH  083%=      5-min Rain = 0
KWA1 100034Z 07002KT 05/02 A3036 RMK A01 T00470020  RH  083%=      5-min Rain = 0
KWA1 100035Z 07002KT 05/02 A3036 RMK A01 T00470021  RH  083%=      5-min Rain = 0
KWA1 100036Z 07002KT 05/02 A3036 RMK A01 T00470020  RH  083%=      5-min Rain = 0
KWA1 100037Z 07002KT 05/02 A3036 RMK A01 T00470021  RH  083%=      5-min Rain = 0
KWA1 100038Z 07003KT 05/02 A3036 RMK A01 T00470021  RH  083%=      5-min Rain = 0
KWA1 100039Z 07003KT 05/02 A3036 RMK A01 T00470020  RH  083%=      5-min Rain = 0
KWA1 100040Z 07003KT 05/02 A3036 RMK A01 T00470020  RH  083%=      5-min Rain = 0
KWA1 100041Z 07003KT 05/02 A3036 RMK A01 T00470020  RH  083%=      5-min Rain = 0
KWA1 100042Z 07003KT 05/02 A3036 RMK A01 T00470020  RH  083%=      5-min Rain = 0
KWA1 100043Z 07003KT 05/02 A3036 RMK A01 T00470020  RH  083%=      5-min Rain = 0
KWA1 100044Z 07003KT 05/02 A3036 RMK A01 T00470020  RH  083%=      5-min Rain = 0
KWA1 100045Z 07003KT 05/02 A3037 RMK A01 T00470020  RH  082%=      5-min Rain = 0
KWA1 100046Z 07003KT 05/02 A3037 RMK A01 T00470019  RH  082%=      5-min Rain = 0
KWA1 100047Z 07003KT 05/02 A3037 RMK A01 T00470019  RH  082%=      5-min Rain = 0
KWA1 100048Z 07003KT 05/02 A3037 RMK A01 T00470019  RH  082%=      5-min Rain = 0
KWA1 100049Z 07003KT 05/02 A3037 RMK A01 T00470018  RH  082%=      5-min Rain = 0
KWA1 100050Z 07003KT 05/02 A3037 RMK A01 T00470018  RH  081%=      5-min Rain = 0
KWA1 100051Z 07003KT 05/02 A3037 RMK A01 T00480018  RH  081%=      5-min Rain = 0
KWA1 100052Z 07003KT 05/02 A3037 RMK A01 T00480018  RH  081%=      5-min Rain = 0
KWA1 100053Z 07003KT 05/02 A3037 RMK A01 T00480017  RH  081%=      5-min Rain = 0
KWA1 100054Z 06003KT 05/02 A3037 RMK A01 T00480018  RH  081%=      5-min Rain = 0
KWA1 100055Z 06003KT 05/02 A3037 RMK A01 T00470017  RH  081%=      5-min Rain = 0
KWA1 100056Z 06003KT 05/02 A3037 RMK A01 T00460017  RH  081%=      5-min Rain = 0
KWA1 100057Z 06003KT 05/02 A3037 RMK A01 T00460017  RH  082%=      5-min Rain = 0
KWA1 100058Z 06003KT 05/02 A3037 RMK A01 T00450017  RH  082%=      5-min Rain = 0
KWA1 100059Z 06003KT 05/02 A3037 RMK A01 T00450017  RH  082%=      5-min Rain = 0
KWA1 100100Z 06003KT 04/02 A3037 RMK A01 T00440017  RH  082%=      5-min Rain = 0
KWA1 100101Z 06003KT 04/02 A3037 RMK A01 T00440017  RH  083%=      5-min Rain = 0
KWA1 100102Z 06003KT 04/02 A3037 RMK A01 T00440017  RH  083%=      5-min Rain = 0
KWA1 100103Z 06003KT 04/02 A3037 RMK A01 T00440017  RH  083%=      5-min Rain = 0
KWA1 100104Z 06003KT 04/02 A3037 RMK A01 T00440018  RH  083%=      5-min Rain = 0
KWA1 100105Z 06003KT 04/02 A3037 RMK A01 T00440018  RH  083%=      5-min Rain = 0
KWA1 100106Z 06003KT 05/02 A3037 RMK A01 T00450018  RH  083%=      5-min Rain = 0
KWA1 100107Z 06003KT 04/02 A3037 RMK A01 T00440017  RH  083%=      5-min Rain = 0
KWA1 100108Z 06003KT 04/02 A3037 RMK A01 T00440017  RH  083%=      5-min Rain = 0
KWA1 100109Z 06003KT 04/02 A3037 RMK A01 T00440017  RH  083%=      5-min Rain = 0
KWA1 100110Z 06003KT 04/02 A3037 RMK A01 T00430017  RH  083%=      5-min Rain = 0
KWA1 100111Z 06003KT 04/02 A3037 RMK A01 T00430017  RH  083%=      5-min Rain = 0
KWA1 100112Z 05003KT 04/02 A3037 RMK A01 T00430017  RH  083%=      5-min Rain = 0
KWA1 100113Z 05004KT 04/02 A3037 RMK A01 T00430017  RH  083%=      5-min Rain = 0
KWA1 100114Z 05003KT 04/02 A3037 RMK A01 T00430016  RH  083%=      5-min Rain = 0
KWA1 100115Z 05003KT 04/02 A3038 RMK A01 T00420016  RH  083%=      5-min Rain = 0
KWA1 100116Z 05003KT 04/02 A3038 RMK A01 T00420016  RH  083%=      5-min Rain = 0
KWA1 100117Z 05004KT 04/02 A3038 RMK A01 T00410016  RH  084%=      5-min Rain = 0
KWA1 100118Z 05004KT 04/02 A3038 RMK A01 T00400016  RH  084%=      5-min Rain = 0
KWA1 100119Z 05004KT 04/02 A3038 RMK A01 T00400016  RH  084%=      5-min Rain = 0
KWA1 100120Z 05004KT 04/02 A3038 RMK A01 T00390016  RH  085%=      5-min Rain = 0
KWA1 100121Z 05004KT 04/02 A3038 RMK A01 T00390016  RH  085%=      5-min Rain = 0
KWA1 100122Z 05004KT 04/02 A3038 RMK A01 T00390016  RH  085%=      5-min Rain = 0
KWA1 100123Z 05004KT 04/02 A3038 RMK A01 T00390016  RH  085%=      5-min Rain = 0
KWA1 100124Z 05004KT 04/02 A3038 RMK A01 T00390015  RH  085%=      5-min Rain = 0
KWA1 100125Z 05004KT 04/02 A3038 RMK A01 T00380016  RH  085%=      5-min Rain = 0
KWA1 100126Z 05004KT 04/02 A3038 RMK A01 T00370016  RH  086%=      5-min Rain = 0
KWA1 100127Z 04004KT 04/02 A3038 RMK A01 T00370016  RH  087%=      5-min Rain = 0
KWA1 100128Z 04004KT 04/02 A3038 RMK A01 T00360016  RH  087%=      5-min Rain = 0
KWA1 100129Z 04004KT 04/02 A3038 RMK A01 T00360016  RH  087%=      5-min Rain = 0
KWA1 100130Z 04004KT 04/02 A3038 RMK A01 T00360016  RH  087%=      5-min Rain = 0
KWA1 100131Z 04004KT 04/02 A3038 RMK A01 T00360016  RH  087%=      5-min Rain = 0
KWA1 100132Z 04004KT 04/02 A3038 RMK A01 T00360015  RH  086%=      5-min Rain = 0
KWA1 100133Z 04004KT 04/02 A3038 RMK A01 T00360015  RH  086%=      5-min Rain = 0
KWA1 100134Z 04004KT 04/01 A3038 RMK A01 T00370014  RH  085%=      5-min Rain = 0
KWA1 100135Z 04004KT 04/01 A3038 RMK A01 T00360013  RH  085%=      5-min Rain = 0
KWA1 100136Z 04004KT 04/01 A3038 RMK A01 T00350013  RH  086%=      5-min Rain = 0
KWA1 100137Z 04005KT 03/01 A3038 RMK A01 T00340014  RH  087%=      5-min Rain = 0
KWA1 100138Z 04004KT 03/01 A3038 RMK A01 T00330014  RH  087%=      5-min Rain = 0
KWA1 100139Z 04005KT 03/01 A3039 RMK A01 T00330014  RH  087%=      5-min Rain = 0
KWA1 100140Z 04005KT 03/01 A3039 RMK A01 T00330014  RH  087%=      5-min Rain = 0
KWA1 100141Z 04004KT 03/01 A3039 RMK A01 T00330014  RH  087%=      5-min Rain = 0
KWA1 100142Z 04004KT 03/01 A3039 RMK A01 T00330014  RH  087%=      5-min Rain = 0
KWA1 100143Z 04004KT 03/01 A3039 RMK A01 T00320014  RH  088%=      5-min Rain = 0
KWA1 100144Z 04004KT 03/01 A3039 RMK A01 T00320013  RH  088%=      5-min Rain = 0
KWA1 100145Z 04004KT 03/01 A3039 RMK A01 T00310012  RH  088%=      5-min Rain = 0
KWA1 100146Z 04004KT 03/01 A3039 RMK A01 T00310012  RH  088%=      5-min Rain = 0
KWA1 100147Z 04004KT 03/01 A3039 RMK A01 T00310012  RH  087%=      5-min Rain = 0
KWA1 100148Z 04004KT 03/01 A3039 RMK A01 T00300011  RH  087%=      5-min Rain = 0
KWA1 100149Z 04004KT 03/01 A3039 RMK A01 T00300011  RH  087%=      5-min Rain = 0
KWA1 100150Z 04004KT 03/01 A3039 RMK A01 T00310011  RH  087%=      5-min Rain = 0
KWA1 100151Z 04004KT 03/01 A3039 RMK A01 T00320012  RH  087%=      5-min Rain = 0
KWA1 100152Z 04004KT 03/01 A3039 RMK A01 T00320012  RH  086%=      5-min Rain = 0
KWA1 100153Z 04004KT 03/01 A3039 RMK A01 T00330012  RH  086%=      5-min Rain = 0
KWA1 100154Z 04004KT 03/01 A3039 RMK A01 T00330011  RH  085%=      5-min Rain = 0
KWA1 100155Z 04004KT 03/01 A3039 RMK A01 T00330010  RH  085%=      5-min Rain = 0
KWA1 100156Z 04004KT 03/01 A3039 RMK A01 T00330009  RH  084%=      5-min Rain = 0
KWA1 100157Z 04005KT 03/01 A3039 RMK A01 T00330009  RH  084%=      5-min Rain = 0
KWA1 100158Z 04005KT 03/01 A3039 RMK A01 T00330009  RH  084%=      5-min Rain = 0
KWA1 100159Z 04005KT 03/01 A3039 RMK A01 T00330009  RH  084%=      5-min Rain = 0
KWA1 100200Z 04005KT 03/01 A3039 RMK A01 T00320008  RH  084%=      5-min Rain = 0
KWA1 100201Z 04005KT 03/01 A3039 RMK A01 T00310008  RH  085%=      5-min Rain = 0
KWA1 100202Z 04005KT 03/01 A3039 RMK A01 T00300007  RH  085%=      5-min Rain = 0
KWA1 100203Z 04005KT 03/01 A3039 RMK A01 T00300007  RH  085%=      5-min Rain = 0
KWA1 100204Z 04004KT 03/01 A3039 RMK A01 T00290007  RH  085%=      5-min Rain = 0
KWA1 100205Z 03004KT 03/01 A3039 RMK A01 T00280008  RH  086%=      5-min Rain = 0
KWA1 100206Z 03004KT 03/01 A3039 RMK A01 T00280008  RH  087%=      5-min Rain = 0
KWA1 100207Z 03004KT 03/01 A3039 RMK A01 T00270008  RH  087%=      5-min Rain = 0
KWA1 100208Z 03004KT 03/01 A3039 RMK A01 T00270009  RH  088%=      5-min Rain = 0
KWA1 100209Z 03004KT 03/01 A3039 RMK A01 T00270009  RH  088%=      5-min Rain = 0
KWA1 100210Z 03004KT 03/01 A3039 RMK A01 T00270009  RH  088%=      5-min Rain = 0
KWA1 100211Z 03004KT 03/01 A3039 RMK A01 T00270009  RH  088%=      5-min Rain = 0
KWA1 100212Z 03004KT 03/01 A3039 RMK A01 T00260009  RH  088%=      5-min Rain = 0
KWA1 100213Z 03004KT 03/01 A3039 RMK A01 T00260009  RH  089%=      5-min Rain = 0
KWA1 100214Z 03004KT 03/01 A3039 RMK A01 T00260010  RH  089%=      5-min Rain = 0
KWA1 100215Z 03004KT 03/01 A3039 RMK A01 T00260010  RH  089%=      5-min Rain = 0
KWA1 100216Z 03004KT 03/01 A3039 RMK A01 T00260010  RH  090%=      5-min Rain = 0
KWA1 100217Z 02003KT 03/01 A3039 RMK A01 T00260011  RH  090%=      5-min Rain = 0
KWA1 100218Z 02003KT 03/01 A3039 RMK A01 T00260011  RH  090%=      5-min Rain = 0
KWA1 100219Z 02003KT 03/01 A3039 RMK A01 T00260011  RH  090%=      5-min Rain = 0
KWA1 100220Z 02003KT 03/01 A3039 RMK A01 T00260011  RH  090%=      5-min Rain = 0
KWA1 100221Z 02003KT 03/01 A3039 RMK A01 T00250011  RH  090%=      5-min Rain = 0
KWA1 100222Z 02003KT 03/01 A3039 RMK A01 T00250010  RH  090%=      5-min Rain = 0
KWA1 100223Z 02003KT 03/01 A3039 RMK A01 T00250010  RH  090%=      5-min Rain = 0
KWA1 100224Z 02003KT 02/01 A3039 RMK A01 T00240010  RH  090%=      5-min Rain = 0
KWA1 100225Z 02004KT 02/01 A3039 RMK A01 T00240009  RH  090%=      5-min Rain = 0
KWA1 100226Z 02004KT 02/01 A3039 RMK A01 T00240010  RH  091%=      5-min Rain = 0
KWA1 100227Z 02004KT 02/01 A3039 RMK A01 T00240010  RH  091%=      5-min Rain = 0
KWA1 100228Z 02004KT 02/01 A3039 RMK A01 T00240011  RH  091%=      5-min Rain = 0
KWA1 100229Z 02004KT 02/01 A3039 RMK A01 T00240012  RH  092%=      5-min Rain = 0
KWA1 100230Z 02004KT 02/01 A3039 RMK A01 T00240012  RH  092%=      5-min Rain = 0
KWA1 100231Z 02004KT 02/01 A304 RMK A01 T00240012  RH  092%=      5-min Rain = 0
KWA1 100232Z 02004KT 02/01 A304 RMK A01 T00230011  RH  092%=      5-min Rain = 0
KWA1 100233Z 02004KT 02/01 A304 RMK A01 T00230011  RH  092%=      5-min Rain = 0
KWA1 100234Z 02004KT 02/01 A304 RMK A01 T00220011  RH  092%=      5-min Rain = 0
KWA1 100235Z 02004KT 02/01 A304 RMK A01 T00220010  RH  092%=      5-min Rain = 0
KWA1 100236Z 02004KT 02/01 A304 RMK A01 T00220010  RH  092%=      5-min Rain = 0
KWA1 100237Z 03004KT 02/01 A304 RMK A01 T00220010  RH  092%=      5-min Rain = 0
KWA1 100238Z 03004KT 02/01 A304 RMK A01 T00220010  RH  092%=      5-min Rain = 0
KWA1 100239Z 03004KT 02/01 A304 RMK A01 T00220010  RH  092%=      5-min Rain = 0
KWA1 100240Z 03004KT 02/01 A304 RMK A01 T00220010  RH  092%=      5-min Rain = 0
KWA1 100241Z 03004KT 02/01 A304 RMK A01 T00220010  RH  092%=      5-min Rain = 0
KWA1 100242Z 03005KT 02/01 A304 RMK A01 T00220009  RH  091%=      5-min Rain = 0
KWA1 100243Z 02005KT 02/01 A304 RMK A01 T00210008  RH  091%=      5-min Rain = 0
KWA1 100244Z 02005KT 02/01 A304 RMK A01 T00210008  RH  091%=      5-min Rain = 0
KWA1 100245Z 02004KT 02/01 A304 RMK A01 T00200007  RH  091%=      5-min Rain = 0
KWA1 100246Z 02004KT 02/01 A304 RMK A01 T00200007  RH  091%=      5-min Rain = 0
KWA1 100247Z 02005KT 02/01 A304 RMK A01 T00200007  RH  091%=      5-min Rain = 0
KWA1 100248Z 02005KT 02/01 A304 RMK A01 T00200007  RH  091%=      5-min Rain = 0
KWA1 100249Z 02005KT 02/01 A304 RMK A01 T00200007  RH  092%=      5-min Rain = 0
KWA1 100250Z 02005KT 02/01 A304 RMK A01 T00200008  RH  092%=      5-min Rain = 0
KWA1 100251Z 02005KT 02/01 A304 RMK A01 T00200008  RH  092%=      5-min Rain = 0
KWA1 100252Z 02005KT 02/01 A304 RMK A01 T00200009  RH  092%=      5-min Rain = 0
KWA1 100253Z 02005KT 02/01 A304 RMK A01 T00200009  RH  092%=      5-min Rain = 0
KWA1 100254Z 02004KT 02/01 A304 RMK A01 T00200008  RH  092%=      5-min Rain = 0
KWA1 100255Z 02004KT 02/01 A304 RMK A01 T00200009  RH  092%=      5-min Rain = 0
KWA1 100256Z 02004KT 02/01 A304 RMK A01 T00200009  RH  092%=      5-min Rain = 0
KWA1 100257Z 02004KT 02/01 A304 RMK A01 T00190008  RH  093%=      5-min Rain = 0
KWA1 100258Z 02004KT 02/01 A304 RMK A01 T00190008  RH  093%=      5-min Rain = 0
KWA1 100259Z 01004KT 02/01 A304 RMK A01 T00190009  RH  093%=      5-min Rain = 0
KWA1 100300Z 01004KT 02/01 A304 RMK A01 T00190009  RH  093%=      5-min Rain = 0
KWA1 100301Z 01004KT 02/01 A304 RMK A01 T00190009  RH  094%=      5-min Rain = 0
KWA1 100302Z 01004KT 02/01 A304 RMK A01 T00180009  RH  094%=      5-min Rain = 0
KWA1 100303Z 01004KT 02/01 A304 RMK A01 T00190010  RH  094%=      5-min Rain = 0
KWA1 100304Z 01004KT 02/01 A304 RMK A01 T00190010  RH  094%=      5-min Rain = 0
KWA1 100305Z 01004KT 02/01 A304 RMK A01 T00190011  RH  094%=      5-min Rain = 0
KWA1 100306Z 01004KT 02/01 A304 RMK A01 T00200011  RH  094%=      5-min Rain = 0
KWA1 100307Z 01004KT 02/01 A304 RMK A01 T00200011  RH  094%=      5-min Rain = 0
KWA1 100308Z 02004KT 02/01 A304 RMK A01 T00200012  RH  094%=      5-min Rain = 0
KWA1 100309Z 02004KT 02/01 A3041 RMK A01 T00200012  RH  094%=      5-min Rain = 0
KWA1 100310Z 02003KT 02/01 A3041 RMK A01 T00200012  RH  094%=      5-min Rain = 0
KWA1 100311Z 02003KT 02/01 A3041 RMK A01 T00210012  RH  094%=      5-min Rain = 0
KWA1 100312Z 02003KT 02/01 A304 RMK A01 T00210012  RH  094%=      5-min Rain = 0
KWA1 100313Z 02003KT 02/01 A304 RMK A01 T00210012  RH  094%=      5-min Rain = 0
KWA1 100314Z 01002KT 02/01 A304 RMK A01 T00210012  RH  094%=      5-min Rain = 0
KWA1 100315Z 01002KT 02/01 A304 RMK A01 T00210011  RH  094%=      5-min Rain = 0
KWA1 100316Z 01002KT 02/01 A304 RMK A01 T00210011  RH  093%=      5-min Rain = 0
KWA1 100317Z 01002KT 02/01 A304 RMK A01 T00210011  RH  093%=      5-min Rain = 0
KWA1 100318Z 01002KT 02/01 A304 RMK A01 T00210011  RH  093%=      5-min Rain = 0
KWA1 100319Z 01002KT 02/01 A304 RMK A01 T00210011  RH  093%=      5-min Rain = 0
KWA1 100320Z 01002KT 02/01 A304 RMK A01 T00210011  RH  093%=      5-min Rain = 0
KWA1 100321Z 01002KT 02/01 A304 RMK A01 T00210010  RH  093%=      5-min Rain = 0
KWA1 100322Z 01001KT 02/01 A304 RMK A01 T00210010  RH  092%=      5-min Rain = 0
KWA1 100323Z 01001KT 02/01 A304 RMK A01 T00210009  RH  092%=      5-min Rain = 0
KWA1 100324Z 01002KT 02/01 A304 RMK A01 T00200009  RH  092%=      5-min Rain = 0
KWA1 100325Z 00001KT 02/01 A304 RMK A01 T00200009  RH  092%=      5-min Rain = 0
KWA1 100326Z 00001KT 02/01 A304 RMK A01 T00200008  RH  092%=      5-min Rain = 0
KWA1 100327Z 00001KT 02/01 A304 RMK A01 T00200008  RH  092%=      5-min Rain = 0
KWA1 100328Z 00001KT 02/01 A304 RMK A01 T00200008  RH  092%=      5-min Rain = 0
KWA1 100329Z 00001KT 02/01 A304 RMK A01 T00190008  RH  092%=      5-min Rain = 0
KWA1 100330Z 00001KT 02/01 A304 RMK A01 T00190008  RH  092%=      5-min Rain = 0
KWA1 100331Z 00001KT 02/01 A304 RMK A01 T00180006  RH  092%=      5-min Rain = 0
KWA1 100332Z 00001KT 02/00 A304 RMK A01 T00160004  RH  091%=      5-min Rain = 0
KWA1 100333Z 00001KT 02/00 A304 RMK A01 T00150003  RH  091%=      5-min Rain = 0
KWA1 100334Z 00001KT 01/00 A304 RMK A01 T00140003  RH  092%=      5-min Rain = 0
KWA1 100335Z 00001KT 02/01 A304 RMK A01 T00150006  RH  093%=      5-min Rain = 0
KWA1 100336Z 00001KT 02/01 A304 RMK A01 T00160007  RH  094%=      5-min Rain = 0
KWA1 100337Z 00001KT 02/01 A304 RMK A01 T00170008  RH  094%=      5-min Rain = 0
KWA1 100338Z 00001KT 02/01 A304 RMK A01 T00180009  RH  094%=      5-min Rain = 0
KWA1 100339Z 00001KT 02/01 A304 RMK A01 T00180009  RH  094%=      5-min Rain = 0
KWA1 100340Z 00001KT 02/01 A304 RMK A01 T00180009  RH  094%=      5-min Rain = 0
KWA1 100341Z 00001KT 02/01 A304 RMK A01 T00180009  RH  093%=      5-min Rain = 0
KWA1 100342Z 00001KT 02/01 A304 RMK A01 T00180008  RH  093%=      5-min Rain = 0
KWA1 100343Z 00001KT 02/01 A304 RMK A01 T00170007  RH  093%=      5-min Rain = 0
KWA1 100344Z 00001KT 02/00 A304 RMK A01 T00160004  RH  092%=      5-min Rain = 0
KWA1 100345Z 00001KT 02/00 A304 RMK A01 T00150003  RH  092%=      5-min Rain = 0
KWA1 100346Z 00001KT 01/00 A304 RMK A01 T00140003  RH  092%=      5-min Rain = 0
KWA1 100347Z 00001KT 01/00 A304 RMK A01 T00140004  RH  093%=      5-min Rain = 0
KWA1 100348Z 00000KT 01/00 A304 RMK A01 T00140004  RH  093%=      5-min Rain = 0
KWA1 100349Z 00001KT 01/00 A304 RMK A01 T00140004  RH  093%=      5-min Rain = 0
KWA1 100350Z 01001KT 01/01 A304 RMK A01 T00140005  RH  093%=      5-min Rain = 0
KWA1 100351Z 01001KT 01/01 A304 RMK A01 T00140005  RH  093%=      5-min Rain = 0
KWA1 100352Z 01001KT 01/01 A304 RMK A01 T00140005  RH  093%=      5-min Rain = 0
KWA1 100353Z 01001KT 01/00 A304 RMK A01 T00140004  RH  093%=      5-min Rain = 0
KWA1 100354Z 01001KT 01/01 A304 RMK A01 T00140005  RH  094%=      5-min Rain = 0
KWA1 100355Z 01001KT 02/01 A304 RMK A01 T00150006  RH  094%=      5-min Rain = 0
KWA1 100356Z 01001KT 02/01 A304 RMK A01 T00150007  RH  094%=      5-min Rain = 0
KWA1 100357Z 01001KT 02/01 A304 RMK A01 T00150007  RH  094%=      5-min Rain = 0
KWA1 100358Z 02002KT 02/01 A304 RMK A01 T00160007  RH  094%=      5-min Rain = 0
KWA1 100359Z 02002KT 02/01 A304 RMK A01 T00160007  RH  094%=      5-min Rain = 0
KWA1 100400Z 02002KT 02/01 A304 RMK A01 T00170008  RH  094%=      5-min Rain = 0
KWA1 100401Z 02002KT 02/01 A304 RMK A01 T00170007  RH  094%=      5-min Rain = 0
KWA1 100402Z 02002KT 02/01 A304 RMK A01 T00170007  RH  094%=      5-min Rain = 0
KWA1 100403Z 02002KT 02/01 A304 RMK A01 T00170008  RH  094%=      5-min Rain = 0
KWA1 100404Z 02002KT 02/01 A304 RMK A01 T00180009  RH  094%=      5-min Rain = 0
KWA1 100405Z 02002KT 02/01 A304 RMK A01 T00180008  RH  093%=      5-min Rain = 0
KWA1 100406Z 03002KT 02/01 A304 RMK A01 T00190009  RH  093%=      5-min Rain = 0
KWA1 100407Z 03002KT 02/01 A304 RMK A01 T00200010  RH  093%=      5-min Rain = 0
KWA1 100408Z 03002KT 02/01 A304 RMK A01 T00200010  RH  093%=      5-min Rain = 0
KWA1 100409Z 03001KT 02/01 A304 RMK A01 T00200009  RH  092%=      5-min Rain = 0
KWA1 100410Z 03001KT 02/01 A304 RMK A01 T00200009  RH  092%=      5-min Rain = 0
KWA1 100411Z 03001KT 02/01 A304 RMK A01 T00210010  RH  092%=      5-min Rain = 0
KWA1 100412Z 03001KT 02/01 A304 RMK A01 T00210009  RH  092%=      5-min Rain = 0
KWA1 100413Z 03001KT 02/00 A304 RMK A01 T00190004  RH  090%=      5-min Rain = 0
KWA1 100414Z 03001KT 02/00 A304 RMK A01 T00160000  RH  089%=      5-min Rain = 0
KWA1 100415Z 03001KT 01/M00 A304 RMK A01 T00141002  RH  089%=      5-min Rain = 0
KWA1 100416Z 03001KT 01/M00 A304 RMK A01 T00131001  RH  090%=      5-min Rain = 0
KWA1 100417Z 03001KT 01/M00 A304 RMK A01 T00121001  RH  091%=      5-min Rain = 0
KWA1 100418Z 03001KT 01/M00 A3041 RMK A01 T00121001  RH  092%=      5-min Rain = 0
KWA1 100419Z 04001KT 01/M00 A3041 RMK A01 T00111001  RH  092%=      5-min Rain = 0
KWA1 100420Z 05001KT 01/00 A3041 RMK A01 T001000-0  RH  092%=      5-min Rain = 0
KWA1 100421Z 06002KT 01/00 A304 RMK A01 T00100000  RH  093%=      5-min Rain = 0
KWA1 100422Z 07002KT 01/00 A304 RMK A01 T00110001  RH  093%=      5-min Rain = 0
KWA1 100423Z 08002KT 01/00 A304 RMK A01 T00110001  RH  094%=      5-min Rain = 0
KWA1 100424Z 08002KT 01/00 A304 RMK A01 T00100001  RH  094%=      5-min Rain = 0
KWA1 100425Z 08002KT 01/00 A304 RMK A01 T00100001  RH  094%=      5-min Rain = 0
KWA1 100426Z 08002KT 01/00 A304 RMK A01 T00090000  RH  094%=      5-min Rain = 0
KWA1 100427Z 08002KT 01/00 A304 RMK A01 T00090001  RH  094%=      5-min Rain = 0
KWA1 100428Z 08002KT 01/00 A304 RMK A01 T00090001  RH  094%=      5-min Rain = 0
KWA1 100429Z 08002KT 01/00 A3041 RMK A01 T00090002  RH  095%=      5-min Rain = 0
KWA1 100430Z 08002KT 01/00 A3041 RMK A01 T00090002  RH  095%=      5-min Rain = 0
KWA1 100431Z 08002KT 01/00 A3041 RMK A01 T00100003  RH  095%=      5-min Rain = 0
KWA1 100432Z 08002KT 01/00 A3041 RMK A01 T00110004  RH  095%=      5-min Rain = 0
KWA1 100433Z 09002KT 01/00 A3041 RMK A01 T00110004  RH  095%=      5-min Rain = 0
KWA1 100434Z 09002KT 01/00 A3041 RMK A01 T00110003  RH  095%=      5-min Rain = 0
KWA1 100435Z 09002KT 01/00 A3041 RMK A01 T00100002  RH  094%=      5-min Rain = 0
KWA1 100436Z 09001KT 01/00 A3041 RMK A01 T00100002  RH  094%=      5-min Rain = 0
KWA1 100437Z 09001KT 01/00 A3041 RMK A01 T00100002  RH  094%=      5-min Rain = 0
KWA1 100438Z 08002KT 01/00 A3041 RMK A01 T00100001  RH  094%=      5-min Rain = 0
KWA1 100439Z 08002KT 01/00 A3041 RMK A01 T00100002  RH  094%=      5-min Rain = 0
KWA1 100440Z 07002KT 01/00 A3041 RMK A01 T00100002  RH  094%=      5-min Rain = 0
KWA1 100441Z 07002KT 01/00 A3041 RMK A01 T00110003  RH  095%=      5-min Rain = 0
KWA1 100442Z 07002KT 01/00 A3041 RMK A01 T00120004  RH  095%=      5-min Rain = 0
KWA1 100443Z 06002KT 01/00 A3041 RMK A01 T00120004  RH  095%=      5-min Rain = 0
KWA1 100444Z 06002KT 01/00 A3041 RMK A01 T00110003  RH  094%=      5-min Rain = 0
KWA1 100445Z 06002KT 01/00 A3041 RMK A01 T00100001  RH  094%=      5-min Rain = 0
KWA1 100446Z 06002KT 01/00 A3041 RMK A01 T00090000  RH  094%=      5-min Rain = 0
KWA1 100447Z 06002KT 01/00 A3041 RMK A01 T00090001  RH  094%=      5-min Rain = 0
KWA1 100448Z 06002KT 01/00 A3041 RMK A01 T00100002  RH  094%=      5-min Rain = 0
KWA1 100449Z 06002KT 01/00 A3041 RMK A01 T00100002  RH  094%=      5-min Rain = 0
KWA1 100450Z 06002KT 01/00 A3041 RMK A01 T00100001  RH  094%=      5-min Rain = 0
KWA1 100451Z 06001KT 01/00 A3041 RMK A01 T000900-0  RH  094%=      5-min Rain = 0
KWA1 100452Z 06001KT 01/00 A3041 RMK A01 T00090000  RH  094%=      5-min Rain = 0
KWA1 100453Z 07001KT 01/00 A3041 RMK A01 T00110003  RH  095%=      5-min Rain = 0
KWA1 100454Z 07001KT 01/00 A3041 RMK A01 T00110004  RH  095%=      5-min Rain = 0
KWA1 100455Z 08001KT 01/00 A3041 RMK A01 T00110003  RH  094%=      5-min Rain = 0
KWA1 100456Z 08001KT 01/00 A3041 RMK A01 T00120003  RH  094%=      5-min Rain = 0
KWA1 100457Z 08001KT 01/00 A3041 RMK A01 T00110003  RH  094%=      5-min Rain = 0
KWA1 100458Z 08001KT 01/00 A3041 RMK A01 T00120003  RH  094%=      5-min Rain = 0
KWA1 100459Z 07001KT 01/01 A3041 RMK A01 T00130005  RH  094%=      5-min Rain = 0
KWA1 100500Z 07001KT 02/01 A3041 RMK A01 T00150007  RH  095%=      5-min Rain = 0
KWA1 100501Z 07001KT 02/01 A3041 RMK A01 T00160007  RH  094%=      5-min Rain = 0
KWA1 100502Z 07001KT 02/01 A3041 RMK A01 T00160006  RH  093%=      5-min Rain = 0
KWA1 100503Z 05001KT 02/00 A3041 RMK A01 T00150004  RH  093%=      5-min Rain = 0
KWA1 100504Z 05001KT 01/00 A3041 RMK A01 T00140003  RH  092%=      5-min Rain = 0
KWA1 100505Z 05001KT 01/00 A3041 RMK A01 T00140003  RH  092%=      5-min Rain = 0
KWA1 100506Z 04001KT 01/00 A3041 RMK A01 T00130001  RH  092%=      5-min Rain = 0
KWA1 100507Z 04001KT 01/00 A3041 RMK A01 T00130001  RH  092%=      5-min Rain = 0
KWA1 100508Z 04001KT 01/M00 A3041 RMK A01 T00121001  RH  091%=      5-min Rain = 0
KWA1 100509Z 03002KT 01/M00 A3041 RMK A01 T00111002  RH  091%=      5-min Rain = 0
KWA1 100510Z 02002KT 01/M00 A3041 RMK A01 T00111001  RH  092%=      5-min Rain = 0
KWA1 100511Z 02003KT 01/M00 A3041 RMK A01 T00111001  RH  092%=      5-min Rain = 0
KWA1 100512Z 02003KT 01/M00 A3041 RMK A01 T00101001  RH  092%=      5-min Rain = 0
KWA1 100513Z 02003KT 01/M00 A3041 RMK A01 T00101002  RH  092%=      5-min Rain = 0
KWA1 100514Z 02002KT 01/M00 A3041 RMK A01 T00091002  RH  092%=      5-min Rain = 0
KWA1 100515Z 02002KT 01/M00 A3041 RMK A01 T00091002  RH  093%=      5-min Rain = 0
KWA1 100516Z 02002KT 01/M00 A3041 RMK A01 T00091001  RH  093%=      5-min Rain = 0
KWA1 100517Z 02002KT 01/00 A3041 RMK A01 T001000-0  RH  093%=      5-min Rain = 0
KWA1 100518Z 02002KT 01/00 A3041 RMK A01 T00100001  RH  093%=      5-min Rain = 0
KWA1 100519Z 02002KT 01/00 A3041 RMK A01 T00100000  RH  093%=      5-min Rain = 0
KWA1 100520Z 02002KT 01/00 A3041 RMK A01 T00100000  RH  093%=      5-min Rain = 0
KWA1 100521Z 02003KT 01/00 A3041 RMK A01 T00100000  RH  093%=      5-min Rain = 0
KWA1 100522Z 02003KT 01/00 A3041 RMK A01 T00100001  RH  094%=      5-min Rain = 0
KWA1 100523Z 01003KT 01/00 A3041 RMK A01 T00110002  RH  094%=      5-min Rain = 0
KWA1 100524Z 01003KT 01/00 A3041 RMK A01 T00110002  RH  093%=      5-min Rain = 0
KWA1 100525Z 01003KT 01/00 A3041 RMK A01 T00110001  RH  093%=      5-min Rain = 0
KWA1 100526Z 01003KT 01/00 A3041 RMK A01 T001100-0  RH  093%=      5-min Rain = 0
KWA1 100527Z 01003KT 01/00 A3041 RMK A01 T00110001  RH  093%=      5-min Rain = 0
KWA1 100528Z 01003KT 01/00 A3041 RMK A01 T00110000  RH  093%=      5-min Rain = 0
KWA1 100529Z 01003KT 01/00 A3041 RMK A01 T001100-0  RH  092%=      5-min Rain = 0
KWA1 100530Z 01003KT 01/00 A3041 RMK A01 T001100-0  RH  092%=      5-min Rain = 0
KWA1 100531Z 00003KT 01/00 A3041 RMK A01 T001100-0  RH  092%=      5-min Rain = 0
KWA1 100532Z 00003KT 01/M00 A3041 RMK A01 T00111001  RH  092%=      5-min Rain = 0
KWA1 100533Z 35002KT 01/M00 A3041 RMK A01 T00101001  RH  092%=      5-min Rain = 0
KWA1 100534Z 34002KT 01/M00 A3041 RMK A01 T00101001  RH  092%=      5-min Rain = 0
KWA1 100535Z 34002KT 01/M00 A3041 RMK A01 T00101002  RH  092%=      5-min Rain = 0
KWA1 100536Z 34002KT 01/M00 A3041 RMK A01 T00091002  RH  092%=      5-min Rain = 0
KWA1 100537Z 34002KT 01/M00 A3041 RMK A01 T00091003  RH  092%=      5-min Rain = 0
KWA1 100538Z 33002KT 01/M00 A3041 RMK A01 T00091002  RH  092%=      5-min Rain = 0
KWA1 100539Z 33003KT 01/M01 A3042 RMK A01 T00071005  RH  092%=      5-min Rain = 0
KWA1 100540Z 34003KT 01/M01 A3042 RMK A01 T00051007  RH  091%=      5-min Rain = 0
KWA1 100541Z 34003KT 00/M01 A3042 RMK A01 T00041009  RH  091%=      5-min Rain = 0
KWA1 100542Z 34003KT 00/M01 A3042 RMK A01 T00021010  RH  092%=      5-min Rain = 0
KWA1 100543Z 34002KT 00/M01 A3041 RMK A01 T00011010  RH  092%=      5-min Rain = 0
KWA1 100544Z 33002KT 00/M01 A3041 RMK A01 T00011009  RH  093%=      5-min Rain = 0
KWA1 100545Z 33002KT 00/01 A3041 RMK A01 T000000-9  RH  093%=      5-min Rain = 0
KWA1 100546Z 34002KT 00/01 A3041 RMK A01 T000000-9  RH  094%=      5-min Rain = 0
KWA1 100547Z 34002KT 00/01 A3041 RMK A01 T000000-9  RH  094%=      5-min Rain = 0
KWA1 100548Z 34002KT 00/01 A3041 RMK A01 T000000-8  RH  094%=      5-min Rain = 0
KWA1 100549Z 34002KT 00/01 A3041 RMK A01 T00-000-8  RH  094%=      5-min Rain = 0
KWA1 100550Z 34002KT M00/M01 A3041 RMK A01 T10011009  RH  094%=      5-min Rain = 0
KWA1 100551Z 34002KT M00/M01 A3041 RMK A01 T10011010  RH  094%=      5-min Rain = 0
KWA1 100552Z 34002KT M00/M01 A3041 RMK A01 T10021010  RH  094%=      5-min Rain = 0
KWA1 100553Z 34002KT M00/M01 A3041 RMK A01 T10021010  RH  094%=      5-min Rain = 0
KWA1 100554Z 34002KT M00/M01 A3041 RMK A01 T10021010  RH  094%=      5-min Rain = 0
KWA1 100555Z 34001KT M00/M01 A3041 RMK A01 T10021010  RH  094%=      5-min Rain = 0
KWA1 100556Z 31002KT M00/M01 A3041 RMK A01 T10031011  RH  094%=      5-min Rain = 0
KWA1 100557Z 28002KT M00/M01 A3041 RMK A01 T10041013  RH  094%=      5-min Rain = 0
KWA1 100558Z 25004KT M01/M01 A3041 RMK A01 T10051014  RH  094%=      5-min Rain = 0
KWA1 100559Z 26004KT M01/M02 A3041 RMK A01 T10071016  RH  094%=      5-min Rain = 0

Page generated in 0.122 seconds.